GFSSE_sfc_30mbdewp_000.txt.gz
Dewpoint
62 63 66 66 69 70 70 71 71 71 70 70 69 68 69 68 67 66 66 66 65 64 64 68 68 67 65 65 66 67 67 68 68 68 67 67 66 67 66 66 67 66 68
62 62 65 65 67 69 70 70 71 71 70 70 69 69 67 68 67 67 65 65 66 63 60 64 64 66 66 67 67 67 67 68 68 68 67 66 66 65 66 67 64 64 68
62 61 59 64 64 66 68 69 69 70 68 69 69 68 68 67 67 66 63 61 62 61 60 66 65 65 66 66 67 67 68 68 68 68 67 66 66 66 65 66 65 66 66
62 61 62 66 66 65 65 66 68 68 69 68 68 67 68 66 66 66 63 60 62 62 61 63 66 65 65 65 66 67 67 68 68 67 66 63 63 66 64 65 65 65 67
62 63 64 66 66 64 64 65 66 67 68 68 67 66 66 67 65 64 64 63 62 63 66 65 63 67 63 64 64 65 65 67 67 67 64 59 61 65 65 63 65 65 65
61 63 66 67 66 64 62 64 66 66 66 68 68 68 68 66 64 62 61 61 64 66 65 63 61 63 65 63 64 64 64 65 66 64 62 57 57 66 65 65 64 63 64
62 63 65 66 67 66 65 65 65 66 66 66 67 67 67 66 67 65 65 65 65 63 60 60 59 60 65 65 65 65 66 65 65 63 60 57 61 67 66 66 66 66 65
61 63 65 66 66 65 64 64 64 64 65 65 66 66 66 66 65 65 65 65 64 64 63 61 63 64 63 64 64 65 65 65 64 63 60 55 61 66 66 66 67 65 65
56 58 62 65 64 64 62 61 62 63 63 65 65 65 64 65 64 63 63 63 61 61 63 62 62 63 63 63 64 64 64 64 64 62 60 58 62 64 65 66 67 66 65
56 56 57 58 64 64 60 59 60 62 62 64 65 65 65 64 62 61 61 60 60 61 60 58 56 61 62 62 63 63 62 62 62 61 59 61 62 64 64 65 66 65 64
51 54 59 61 61 60 59 59 61 61 62 63 62 63 63 63 61 61 59 59 59 58 58 56 54 54 58 59 61 61 61 60 58 59 59 59 62 61 62 65 64 65 65
46 46 51 57 60 61 57 53 62 61 61 61 61 61 61 60 60 60 60 60 59 59 58 57 56 55 53 53 56 60 59 56 53 57 60 60 61 60 60 62 64 64 64
43 44 47 54 59 60 58 59 60 60 60 59 59 59 59 58 58 58 58 59 59 58 58 57 57 56 55 55 55 56 59 59 57 53 52 58 59 59 59 61 64 64 64
38 41 44 53 56 56 56 54 57 54 54 54 55 56 57 57 57 57 57 56 57 57 57 58 57 55 55 55 55 55 56 58 58 57 58 58 60 60 58 60 61 63 63
36 39 41 48 53 55 53 52 51 49 48 47 49 51 53 53 55 55 55 55 56 56 56 57 57 56 55 56 56 56 55 56 59 59 58 57 56 57 58 58 60 61 63
34 36 41 44 49 49 52 51 49 47 45 44 46 50 51 53 53 53 52 52 52 53 54 56 57 58 57 57 57 57 57 55 56 57 58 57 56 55 56 56 57 60 62
33 34 37 40 45 46 48 48 47 42 40 42 47 48 48 50 48 46 46 46 48 50 52 53 52 52 54 57 58 58 58 58 58 59 59 58 57 56 55 55 56 56 60
32 33 35 31 38 40 42 40 38 38 40 42 46 47 46 45 45 45 44 44 43 44 44 42 42 44 49 50 53 53 53 54 57 57 58 58 57 56 57 56 55 56 56
32 31 32 30 30 37 37 37 36 38 37 40 44 44 43 40 38 38 39 42 40 37 37 36 37 36 35 36 37 44 44 46 50 55 56 56 58 57 56 56 55 55 55
33 31 31 32 32 35 36 35 36 37 37 36 38 39 39 37 35 35 38 37 37 35 36 37 37 37 37 35 32 32 37 40 47 55 56 57 56 57 57 56 55 54 54
32 32 31 31 32 32 33 32 32 33 34 36 36 36 38 37 35 35 35 34 36 35 36 35 36 35 35 37 35 32 32 32 36 41 51 57 58 57 56 56 56 55 50
33 33 32 31 32 33 32 32 32 34 33 34 34 36 36 37 34 35 35 33 34 34 35 37 37 34 36 34 35 34 30 29 33 36 38 44 52 56 56 56 56 56 55
35 35 34 32 32 33 32 32 33 33 32 31 31 34 37 36 37 36 35 35 34 35 35 37 35 34 33 35 34 34 32 30 32 31 33 32 37 44 52 54 57 56 55
35 37 37 35 33 32 35 31 31 29 29 29 30 31 32 39 38 36 35 36 36 36 35 36 35 39 36 35 36 36 35 34 32 31 32 32 31 32 42 50 52 54 56
32 38 37 37 36 34 34 34 32 31 31 32 33 32 32 33 32 32 32 34 36 37 37 37 36 36 38 37 37 36 36 36 36 34 32 32 33 32 32 45 50 50 50
35 35 38 38 37 37 36 35 34 32 33 34 33 32 32 32 32 33 32 32 32 32 32 33 33 33 33 35 35 35 34 34 33 32 31 31 31 31 31 35 47 46 49

GFSSE_sfc_30mbdewp_003.txt.gz
Dewpoint
63 64 66 68 70 70 71 71 71 71 71 70 69 68 67 69 69 67 66 64 61 60 62 63 61 65 65 65 67 68 68 67 68 68 68 67 66 66 67 68 68 67 68
63 63 64 66 68 69 70 70 70 69 70 70 69 68 67 69 67 66 65 62 60 57 58 61 61 66 65 65 66 66 67 68 67 67 67 67 66 66 67 65 64 66 68
62 62 64 65 66 67 68 69 70 69 69 69 69 68 68 68 66 65 64 62 61 56 55 61 62 65 65 64 63 65 65 67 67 67 67 66 66 66 66 64 66 67 66
61 64 65 66 66 66 67 68 69 68 68 68 69 69 68 67 67 65 62 62 61 60 60 61 65 65 66 65 63 63 65 65 67 67 67 66 65 67 65 64 66 67 66
63 65 66 65 64 64 67 68 68 68 67 68 67 69 68 67 67 67 63 63 61 62 62 63 63 64 63 62 65 64 62 64 65 67 65 63 63 66 65 64 65 67 66
64 66 66 66 66 65 66 67 67 66 67 67 68 68 67 67 66 65 64 63 62 62 64 65 64 62 61 61 62 65 64 62 65 66 64 63 62 65 65 65 64 64 65
65 65 66 66 65 65 65 64 65 65 66 67 68 67 68 66 64 62 61 62 63 65 64 63 61 58 59 62 64 64 66 65 65 64 63 62 63 66 66 65 65 64 64
64 64 65 65 63 63 63 62 62 63 65 66 67 67 66 67 66 66 66 65 65 64 62 61 60 59 60 62 62 64 65 66 66 65 64 61 59 65 66 66 66 66 65
64 65 64 64 63 61 60 60 61 62 64 65 66 65 65 64 64 64 64 63 63 63 63 64 63 63 64 64 64 64 65 65 65 64 62 60 60 64 65 66 67 66 65
58 61 65 65 63 61 58 58 59 61 63 65 65 66 64 62 62 62 61 61 62 61 60 60 61 60 61 62 62 62 63 62 62 62 61 60 64 64 64 65 66 67 66
55 60 61 62 64 62 59 59 60 61 62 63 63 64 64 62 61 58 60 60 60 61 59 57 58 60 60 60 60 59 60 60 60 60 60 60 62 62 64 64 65 66 65
48 53 55 57 60 60 60 61 61 62 62 62 61 61 61 60 59 58 59 59 59 59 59 59 58 57 56 55 56 59 59 59 57 55 58 60 61 60 62 64 65 65 65
44 45 51 57 59 58 58 61 62 60 61 60 59 59 57 58 58 59 59 59 59 57 58 58 58 58 56 56 55 55 57 58 58 58 57 58 61 61 61 62 63 65 65
42 44 50 54 56 56 54 56 56 58 56 58 57 59 58 58 57 57 55 57 56 57 57 56 57 56 54 55 55 54 54 54 56 57 57 58 59 61 58 60 62 64 65
37 41 48 52 54 55 52 51 49 48 48 48 50 50 54 57 56 56 56 55 56 56 57 56 57 56 55 55 56 55 55 55 54 56 58 58 58 58 59 59 59 61 63
33 39 44 47 50 51 53 50 48 45 44 45 48 50 52 52 52 51 54 54 53 52 53 53 52 52 55 57 57 56 56 56 55 55 55 57 57 58 58 58 58 59 61
33 37 39 40 47 46 51 50 47 44 43 44 47 48 48 49 46 45 44 46 47 50 52 51 51 50 50 52 52 55 55 56 57 57 57 56 56 57 57 57 57 57 59
33 35 34 34 42 43 47 47 46 39 38 43 47 47 46 46 47 46 45 43 39 41 44 37 39 39 41 41 42 45 51 49 48 52 58 59 58 57 57 57 57 57 56
32 32 34 26 31 37 38 39 39 39 39 42 48 46 45 43 40 39 43 40 37 39 38 37 36 37 35 36 35 36 35 35 40 43 48 56 58 58 57 57 57 58 57
31 31 33 31 29 35 37 36 37 36 35 39 45 45 43 41 37 35 40 40 37 37 39 36 35 37 37 35 37 35 34 35 39 41 47 54 55 58 58 57 57 57 57
31 29 29 30 32 33 32 33 32 32 34 36 36 40 41 39 35 34 35 39 38 37 36 36 37 34 33 36 34 34 33 33 34 34 41 49 54 57 58 59 58 57 55
30 31 30 30 31 32 32 33 32 31 32 33 35 37 39 39 36 35 34 33 34 33 33 33 38 35 36 35 35 34 31 32 32 35 35 37 38 45 42 50 58 59 57
33 32 32 32 31 33 32 32 33 34 35 32 32 36 37 36 37 35 35 35 35 35 33 37 34 32 33 37 35 35 33 32 34 34 35 35 36 37 39 43 53 50 49
34 35 34 33 34 35 35 31 30 30 30 29 29 30 35 37 37 37 35 37 37 37 37 39 38 37 38 36 38 37 37 37 36 34 36 36 36 36 37 42 50 51 54
34 37 36 35 35 35 36 35 32 30 32 31 31 31 34 38 39 37 37 38 37 35 34 33 33 31 34 35 36 37 37 37 38 36 34 35 37 36 37 38 43 49 51
36 37 38 36 35 36 36 36 35 33 31 32 33 33 34 33 32 32 31 31 30 28 28 29 28 27 26 30 33 34 34 34 33 33 33 33 33 33 32 33 36 43 46

GFSSE_sfc_30mbdewp_006.txt.gz
Dewpoint
63 65 68 69 69 70 70 69 71 71 70 69 68 68 70 68 67 65 63 62 59 61 63 62 61 61 65 65 64 64 65 66 66 67 68 67 66 67 67 67 67 68 69
62 63 66 68 69 69 70 69 69 70 70 69 68 70 69 68 66 64 61 62 62 62 60 61 63 65 65 65 65 63 64 65 66 67 67 67 66 66 67 66 65 68 69
60 63 64 65 67 69 69 69 69 69 70 69 69 69 69 68 66 64 62 62 61 60 62 61 62 65 66 64 63 65 63 63 65 65 67 66 66 66 66 64 64 68 68
61 64 65 65 67 68 68 68 68 68 68 69 69 69 69 68 67 66 65 62 61 60 62 64 65 64 65 59 60 62 64 64 65 64 66 66 66 65 65 64 66 67 67
63 65 64 63 66 67 67 67 67 67 68 69 69 69 69 67 67 66 63 63 62 62 63 64 65 65 63 61 55 60 64 63 63 64 65 65 63 65 66 64 67 66 66
64 65 64 63 64 67 67 66 67 67 67 68 69 68 68 67 66 66 64 63 63 63 63 64 63 63 63 60 59 64 63 61 63 64 65 64 63 64 66 65 65 66 66
63 64 64 64 64 64 65 66 66 66 67 67 67 68 67 66 65 63 62 64 63 64 65 65 65 64 62 61 63 64 64 61 64 65 64 63 60 65 66 65 65 65 66
63 64 64 63 63 63 63 63 63 65 66 66 66 66 66 67 66 66 66 64 64 65 63 62 61 62 60 61 62 62 61 62 63 65 64 64 62 63 66 66 63 64 65
64 64 64 64 63 61 61 61 61 63 65 66 65 65 64 64 65 65 64 64 64 64 64 62 62 61 60 63 63 62 64 64 65 64 64 62 61 62 65 66 66 65 65
64 64 63 63 62 59 58 59 61 61 63 65 65 64 63 63 62 62 62 63 63 62 62 62 62 63 63 63 63 63 63 62 62 62 61 61 61 63 64 65 65 67 66
62 64 64 63 62 59 57 59 60 61 62 64 65 64 62 61 61 60 60 60 61 61 59 58 58 59 59 58 59 60 60 60 60 59 58 60 61 62 64 63 65 65 66
57 59 61 62 62 61 59 60 60 62 61 61 63 64 62 61 59 59 59 59 59 59 59 59 59 58 56 55 55 56 58 59 58 57 56 57 60 61 61 63 63 63 65
49 52 56 57 59 57 58 61 62 61 61 61 60 61 59 58 59 59 58 59 57 58 58 57 56 56 55 55 55 55 55 55 56 58 57 58 60 61 60 63 62 63 64
45 49 55 56 56 54 56 61 61 60 61 59 59 58 58 57 56 58 56 57 56 56 56 56 56 56 54 53 54 54 54 54 54 55 56 55 56 60 60 61 62 62 62
42 46 52 54 55 54 51 50 51 51 54 52 53 53 58 56 56 56 56 55 55 56 56 55 55 56 55 55 56 56 55 55 55 55 55 56 56 58 59 59 60 61 62
40 44 51 52 53 54 51 49 47 46 46 47 50 51 54 55 55 55 55 55 55 53 51 50 49 48 49 51 53 55 56 57 57 56 56 56 56 56 56 57 58 59 60
38 42 46 48 50 49 51 50 47 44 43 45 48 49 51 50 47 49 49 51 51 50 51 50 48 48 45 47 43 45 49 52 49 50 54 56 57 57 56 57 58 58 58
35 39 40 42 47 46 49 49 48 45 42 44 47 47 47 49 46 45 45 44 42 44 48 39 38 37 37 37 38 37 41 45 40 39 44 49 56 57 58 58 58 58 58
35 35 31 38 40 40 41 44 40 41 38 40 47 47 46 46 45 43 45 42 38 40 39 37 37 37 34 34 34 36 35 35 34 38 38 41 46 56 59 59 58 58 59
33 33 31 27 29 34 37 37 37 37 38 39 45 47 46 44 41 38 42 41 37 38 38 38 35 37 36 34 35 33 35 34 36 35 36 41 45 51 54 57 58 58 58
30 30 31 30 30 32 33 33 32 31 34 36 38 46 45 43 40 37 36 40 40 37 37 37 35 35 33 35 34 34 34 34 34 33 38 39 42 46 51 54 56 57 58
29 29 30 30 30 32 32 32 32 31 32 33 34 38 43 43 40 37 35 36 38 38 36 37 37 36 35 37 34 34 31 31 33 35 35 36 37 39 42 41 44 52 55
30 30 30 30 30 31 32 33 33 34 34 34 33 35 37 42 40 37 36 36 35 36 33 34 35 35 34 37 36 35 32 30 35 35 36 37 37 38 39 40 42 47 52
32 33 32 32 32 32 33 33 31 30 30 31 31 32 35 39 39 39 37 37 36 37 38 38 37 37 37 33 35 38 37 37 33 29 33 35 36 37 38 39 40 41 48
33 34 35 35 35 35 37 36 34 32 32 32 33 31 31 35 38 39 39 39 39 37 33 30 29 26 30 29 28 29 31 32 34 31 27 26 30 35 37 35 35 36 36
37 37 38 38 37 37 38 38 37 36 35 34 34 33 34 36 37 38 37 35 33 31 30 29 29 29 28 28 29 29 29 28 27 29 27 26 26 26 28 29 27 29 34

GFSSE_sfc_30mbdewp_009.txt.gz
Dewpoint
62 66 69 69 70 69 69 71 71 69 69 69 70 69 69 68 67 67 66 65 64 64 63 63 64 65 65 63 63 62 63 64 66 67 67 66 66 66 66 68 68 67 68
63 65 68 69 70 70 69 70 71 70 69 69 70 69 68 67 65 64 64 62 65 63 62 63 65 65 66 66 66 65 62 62 64 66 67 67 66 67 66 66 67 68 67
62 64 66 68 69 69 69 69 69 70 70 69 70 69 69 67 65 63 63 64 62 63 62 63 65 66 64 62 62 62 63 64 64 65 67 66 66 66 66 66 65 67 67
63 64 65 67 68 67 68 68 68 68 69 69 70 69 69 68 67 65 65 63 62 61 63 64 64 66 64 62 60 61 63 62 64 65 66 66 66 65 65 65 65 66 66
63 63 64 67 67 67 66 66 67 67 68 68 69 69 69 68 67 66 64 63 62 62 63 64 65 65 64 60 60 61 63 63 63 64 65 65 65 65 64 64 65 66 67
62 63 62 65 66 65 65 65 66 66 67 68 68 68 68 68 67 66 65 63 62 63 63 64 63 63 63 63 62 60 64 63 62 63 64 65 64 63 65 65 65 66 66
62 63 62 63 64 65 65 65 65 66 66 67 68 67 67 67 65 64 64 64 64 63 64 65 66 66 64 63 62 63 64 63 61 62 63 64 63 62 65 66 64 65 65
61 63 63 63 62 61 63 64 65 65 66 65 66 66 67 66 66 66 64 62 63 64 65 63 63 62 63 60 60 62 62 61 61 62 63 63 64 64 64 65 64 66 66
63 63 63 63 63 62 62 62 63 64 65 65 64 64 65 65 65 65 64 65 65 65 64 62 63 62 61 61 62 63 63 64 63 64 63 63 62 63 63 64 64 65 65
63 62 62 62 61 60 61 61 61 63 65 65 64 63 63 63 63 63 62 63 62 62 61 61 61 62 62 62 61 61 60 61 61 60 61 61 62 62 62 63 65 64 65
63 62 62 62 61 59 57 59 61 62 63 64 64 63 62 61 60 59 60 61 61 60 60 59 59 58 57 56 56 57 57 59 59 58 57 57 58 61 62 62 64 63 64
62 62 62 62 61 60 58 59 60 61 61 62 64 62 61 60 59 58 59 59 58 58 59 58 58 57 56 55 55 55 55 55 56 57 58 58 59 61 61 62 62 63 63
61 61 62 63 62 61 60 60 60 61 61 60 61 62 61 59 59 58 58 57 56 56 55 56 55 55 53 52 53 53 53 53 54 54 55 56 57 57 59 61 62 62 62
55 54 56 58 57 54 59 60 61 61 60 60 60 59 58 56 57 57 57 57 56 55 55 55 55 55 55 54 54 54 55 55 55 55 55 56 56 57 56 59 61 62 62
47 51 55 56 56 53 56 56 58 58 60 59 58 58 57 56 55 56 55 56 55 55 55 55 54 54 53 53 54 54 54 54 56 56 56 56 56 56 58 57 58 60 61
44 47 52 54 55 52 51 49 49 50 52 52 52 52 56 56 55 55 55 54 54 54 53 50 48 47 46 48 48 48 51 53 53 52 51 50 50 52 53 57 58 56 56
42 45 50 52 53 53 51 50 47 45 45 46 49 50 53 55 53 54 54 54 54 51 49 49 47 46 41 43 39 39 40 45 49 43 43 46 48 51 54 56 57 58 58
40 43 48 48 49 48 50 50 48 46 44 43 47 48 50 50 48 46 46 48 50 46 50 45 37 37 36 36 36 36 37 40 37 35 39 40 45 47 53 56 57 58 58
38 41 40 44 46 45 47 49 47 44 42 41 45 47 47 48 47 46 45 44 42 41 44 39 36 36 34 34 33 35 34 34 34 36 35 36 39 44 52 56 58 58 58
37 35 32 39 40 38 38 38 38 38 39 39 39 45 47 47 47 44 44 45 41 38 39 38 36 37 36 34 34 34 34 35 34 34 35 38 38 42 45 48 53 52 57
34 33 29 28 29 34 34 34 34 33 34 37 38 40 45 47 45 42 40 42 41 37 36 38 36 34 34 36 34 33 34 34 33 33 35 35 37 39 40 43 43 45 48
30 31 31 31 31 31 32 32 32 32 32 33 35 37 41 45 45 43 39 39 41 39 37 37 36 35 35 36 32 34 29 30 31 35 36 36 36 39 39 40 41 44 45
29 29 30 30 30 31 32 33 33 34 34 33 33 34 36 43 46 44 40 37 38 40 38 37 37 36 33 37 37 33 30 28 32 33 28 33 36 31 38 38 39 40 40
31 32 32 32 33 33 34 33 33 32 31 31 32 33 34 37 40 43 42 39 37 38 38 36 37 37 36 33 32 37 33 33 23 20 28 26 26 31 32 36 37 35 35
33 34 36 37 37 38 38 38 37 36 36 36 36 35 35 35 39 41 42 40 38 39 38 36 32 29 29 28 27 28 30 32 33 27 20 19 26 27 30 32 33 33 33
38 37 37 37 37 37 37 37 38 37 37 38 38 37 37 36 37 39 40 39 35 33 32 32 32 33 33 31 31 32 29 26 25 25 26 24 26 29 30 31 31 31 32

GFSSE_sfc_30mbdewp_012.txt.gz
Dewpoint
62 67 69 69 69 69 70 70 69 69 70 69 69 68 68 68 67 67 66 65 65 65 64 65 65 66 64 64 64 64 65 65 66 65 66 66 66 66 67 67 68 67 68
63 66 68 69 70 69 70 70 69 69 70 70 69 68 67 67 66 65 65 64 64 64 63 65 65 65 66 66 64 63 62 64 65 67 67 67 66 66 66 67 67 67 66
63 65 67 69 69 69 69 70 70 70 70 70 69 69 68 66 65 65 65 63 62 62 63 63 65 67 65 64 63 64 64 64 64 65 66 66 66 66 67 66 66 68 67
62 64 67 68 67 67 68 68 68 69 70 70 70 69 68 67 65 65 64 63 62 62 64 64 64 66 65 64 63 64 64 64 64 65 66 66 65 66 65 67 66 67 67
62 64 67 66 66 66 66 66 67 68 68 69 70 69 69 68 67 66 64 64 62 63 64 64 64 65 65 62 62 61 64 64 64 64 64 65 65 65 65 65 65 66 66
61 62 65 65 65 64 64 64 65 66 67 67 68 68 68 68 67 67 65 63 62 63 63 64 64 64 63 63 63 62 64 63 60 59 62 64 65 64 64 64 63 65 66
60 61 63 64 64 64 63 64 65 65 66 67 67 67 67 67 66 64 63 64 64 63 65 65 65 65 64 64 62 62 63 63 62 62 62 63 63 63 64 65 65 63 65
60 61 61 62 62 64 64 63 64 65 65 65 65 67 67 66 66 66 65 63 63 64 65 63 63 63 62 61 63 61 62 62 62 63 63 63 63 64 64 64 64 63 64
62 61 61 62 62 62 62 62 63 64 65 64 64 64 64 65 65 64 64 64 64 64 64 63 63 63 63 63 62 60 60 61 61 61 61 62 63 63 62 64 64 64 63
62 61 61 62 61 60 61 61 61 63 64 64 63 63 62 62 62 62 61 62 62 61 61 60 60 60 59 58 58 57 57 59 58 58 58 58 60 60 62 63 63 64 64
61 61 61 61 60 58 56 59 61 62 63 64 64 63 61 60 59 59 60 61 61 60 60 59 59 58 57 56 56 56 55 55 56 56 56 58 59 59 61 62 63 64 64
60 61 61 61 60 59 57 58 59 60 62 62 64 62 60 59 58 58 58 59 58 58 58 57 57 56 53 52 53 54 54 54 54 54 54 56 57 57 59 60 62 62 63
61 62 62 62 61 61 59 58 59 60 60 60 61 62 61 60 59 58 57 57 55 56 54 55 54 55 55 54 54 54 54 55 55 55 56 57 58 58 58 58 59 61 61
60 62 62 62 62 60 60 59 59 60 60 60 60 60 59 58 56 57 56 56 56 55 54 54 55 54 54 54 53 53 53 53 54 55 55 55 53 53 56 58 58 58 60
58 59 58 58 58 55 57 59 60 60 60 60 59 58 58 56 55 55 56 55 55 54 55 54 52 50 49 49 50 51 51 53 53 51 49 49 49 47 47 50 55 59 58
53 53 54 55 56 53 54 55 56 56 57 57 56 57 56 56 55 54 54 54 54 54 54 51 47 45 43 45 44 42 42 45 49 45 41 42 44 47 50 51 52 53 58
48 48 52 53 55 53 51 50 48 49 50 50 51 52 51 54 55 55 54 54 54 54 51 48 47 46 41 39 37 38 38 40 45 40 37 39 42 43 49 54 55 55 56
44 45 50 51 52 52 51 51 49 46 45 44 46 48 50 52 53 51 52 52 53 52 50 49 42 37 36 36 35 35 36 36 36 34 37 36 40 42 45 51 50 54 50
41 43 47 47 48 48 48 50 49 48 46 44 43 46 47 49 50 48 46 46 48 49 46 47 40 36 34 33 34 34 35 34 34 35 34 37 37 40 43 45 47 47 47
38 42 43 42 46 44 42 41 41 40 39 41 40 41 45 47 48 48 46 45 45 43 41 42 39 37 36 33 33 33 34 34 35 34 34 35 37 38 40 41 43 42 45
37 37 34 36 38 37 35 34 34 33 34 36 37 38 41 45 47 47 46 45 45 42 40 39 37 35 35 37 34 33 33 35 34 34 35 37 35 38 36 39 40 42 42
34 33 31 30 30 31 33 33 33 32 33 34 34 35 37 40 44 46 45 43 43 43 40 38 37 35 35 36 32 33 28 29 32 34 35 33 35 37 32 37 35 39 40
30 31 31 31 31 31 33 33 33 34 34 33 33 33 34 36 39 44 44 43 41 42 40 38 37 36 34 36 36 31 30 27 30 30 32 26 34 27 34 31 34 36 34
30 32 33 34 35 36 37 36 36 35 35 35 35 35 35 36 37 40 44 45 42 40 40 39 38 38 36 35 36 38 32 32 19 19 25 30 24 27 27 31 33 33 34
35 38 38 38 38 38 38 38 37 36 37 38 39 38 38 38 38 38 39 42 42 40 39 38 35 34 32 31 28 30 30 32 33 27 21 22 25 26 28 31 32 34 33
37 37 38 38 38 38 39 37 34 34 35 35 35 36 37 39 38 37 40 40 37 35 34 36 37 37 37 36 35 35 32 29 29 31 31 29 24 26 29 29 32 31 31

GFSSE_sfc_30mbdewp_015.txt.gz
Dewpoint
61 67 69 69 69 70 70 70 69 68 68 68 68 68 67 67 67 66 65 65 66 65 65 65 65 66 65 64 64 65 66 65 64 65 66 66 66 67 68 69 67 65 68
63 67 68 69 69 69 69 69 68 68 68 67 68 67 66 66 66 67 65 66 65 64 63 63 65 66 66 65 63 63 64 65 66 67 67 66 67 66 67 67 66 65 67
63 66 67 69 68 68 70 70 70 68 69 69 68 67 67 66 66 66 64 63 63 63 64 63 65 66 65 65 65 65 65 64 64 65 67 60 61 67 66 67 66 67 67
62 65 67 67 67 67 67 68 69 70 70 70 69 68 67 66 66 66 64 64 63 63 63 64 64 66 65 63 64 62 64 65 64 65 62 63 62 65 66 67 66 67 67
61 64 66 66 66 66 66 67 68 68 69 70 70 69 69 68 67 66 64 64 63 62 62 63 64 65 65 64 63 63 63 63 61 62 63 63 64 64 66 65 65 66 66
60 63 65 65 64 64 65 65 66 67 67 68 68 68 68 68 67 66 66 64 62 63 64 65 65 65 65 64 63 62 63 64 62 60 60 61 63 64 65 65 64 63 64
58 62 63 64 64 64 64 64 65 65 65 66 66 67 67 66 65 64 63 63 64 63 65 64 63 63 62 62 61 61 61 62 60 60 60 63 62 64 64 64 64 65 64
57 60 61 63 64 63 63 63 64 64 64 64 65 66 66 66 66 65 65 65 65 65 64 64 64 64 62 63 63 63 63 63 62 62 62 62 63 64 64 63 63 63 62
59 59 60 61 61 62 61 62 63 64 64 64 64 63 64 64 64 64 64 63 63 62 62 62 62 62 61 60 59 58 59 60 60 59 59 59 60 61 62 63 63 63 63
61 60 61 62 61 61 61 61 62 63 64 63 63 62 62 61 61 60 61 62 61 61 61 61 60 59 59 58 58 56 56 56 57 58 58 59 59 60 62 63 63 64 63
61 61 62 61 61 60 58 59 61 62 63 64 63 62 61 60 59 59 60 60 60 60 59 59 58 57 55 55 56 55 54 53 54 54 54 57 58 58 60 60 62 63 64
60 60 61 62 62 60 56 59 60 61 62 62 63 62 61 61 60 59 58 59 58 58 57 57 57 56 53 53 54 55 54 55 54 54 54 58 58 58 58 59 59 61 62
60 61 61 62 63 62 60 59 59 60 61 61 62 62 62 62 61 60 59 58 57 56 54 55 55 56 56 55 55 54 53 53 54 54 55 56 53 55 56 58 59 59 61
61 61 62 63 63 63 62 61 60 60 61 61 61 61 61 60 60 59 58 57 58 56 55 56 56 56 55 54 53 52 51 52 51 50 45 49 48 47 48 51 54 58 59
60 61 63 63 62 61 59 60 61 61 61 61 61 61 60 59 59 57 57 57 56 56 55 56 55 51 48 46 47 45 45 45 48 41 39 45 48 48 50 50 51 54 56
58 59 61 59 58 57 56 59 59 60 61 60 60 60 60 59 58 56 56 55 55 55 55 56 53 47 45 44 44 42 41 42 45 42 36 39 45 49 51 50 52 54 55
55 56 57 56 57 57 54 54 54 54 54 57 58 58 58 57 56 56 55 55 55 55 56 54 50 48 44 42 41 41 40 41 43 40 37 37 37 43 49 48 51 47 49
49 51 53 53 54 55 54 53 52 50 49 49 49 50 52 53 54 54 54 54 54 55 55 53 50 46 41 38 37 36 36 38 38 37 37 38 36 37 41 46 46 45 46
47 49 50 52 52 53 51 51 52 52 50 49 48 47 48 50 52 52 51 51 52 51 52 52 50 46 40 37 35 36 37 36 37 34 36 39 38 38 38 43 43 44 43
45 47 49 49 49 49 47 46 45 44 43 44 43 43 45 46 49 50 49 50 50 47 48 49 48 45 41 37 34 32 37 37 37 37 35 35 36 37 38 38 36 34 42
42 44 45 43 44 44 41 38 37 37 37 38 38 40 41 42 44 47 46 48 49 47 46 46 45 44 41 39 37 35 36 38 38 36 36 34 36 37 37 36 31 29 28
39 41 38 34 34 34 35 36 37 37 37 37 38 40 41 41 41 42 44 44 45 45 46 46 45 41 40 40 34 34 31 32 35 37 36 36 35 37 31 30 27 30 31
35 35 33 34 36 37 39 38 38 39 39 37 36 36 38 41 41 41 42 43 44 44 43 45 45 43 40 39 39 33 31 29 31 34 36 34 34 30 31 25 28 28 28
37 41 40 40 39 40 41 39 39 36 35 35 37 37 39 40 40 41 41 42 43 44 44 43 43 43 41 38 38 38 38 34 30 28 30 30 32 27 26 28 28 26 32
40 40 41 40 40 41 41 38 37 37 37 37 37 36 37 38 40 40 39 41 42 42 43 43 42 41 40 39 37 37 33 32 33 27 27 27 25 29 28 29 28 28 30
41 41 42 41 40 41 41 37 38 38 38 37 37 35 34 35 37 38 39 40 40 39 39 40 40 40 39 38 38 38 35 33 31 33 31 32 32 31 27 26 27 28 27

GFSSE_sfc_30mbdewp_021.txt.gz
Dewpoint
59 64 69 69 69 69 69 67 67 67 69 69 68 68 67 68 68 68 68 67 66 64 63 63 64 65 65 64 65 65 66 66 66 65 65 65 65 66 68 67 67 63 67
59 63 69 69 70 70 69 68 68 68 68 68 68 67 68 68 68 67 66 64 64 64 64 63 64 65 65 66 66 66 66 65 65 65 64 63 64 65 66 66 66 64 66
59 62 65 68 70 70 70 69 69 69 68 68 68 67 68 67 66 65 64 63 64 63 64 65 65 66 65 65 64 64 65 64 64 64 63 55 63 65 66 66 66 67 67
56 59 65 67 68 68 69 70 70 69 69 68 68 67 67 67 66 65 64 64 64 63 63 64 65 66 65 64 63 63 63 63 62 62 57 58 56 63 66 66 66 67 66
55 59 65 66 66 66 67 68 68 69 69 69 68 67 66 66 65 66 65 64 63 63 64 64 65 66 65 64 63 62 63 63 62 60 56 58 59 62 64 65 65 64 65
51 57 64 64 63 64 64 65 66 67 67 67 68 68 68 67 66 65 65 64 64 64 65 64 63 62 62 63 62 61 61 61 61 56 57 56 57 63 63 64 64 63 64
46 51 55 62 63 64 64 64 65 65 66 66 67 66 66 65 65 64 63 63 64 65 64 64 64 62 62 63 63 63 63 62 58 55 57 60 62 64 63 63 64 64 63
48 50 52 61 63 63 64 64 64 64 64 65 66 66 65 65 65 65 65 64 64 64 63 63 64 64 63 62 60 60 60 60 58 57 57 58 61 62 62 63 63 63 63
47 49 51 54 59 62 62 63 63 64 63 63 63 64 63 63 63 63 63 63 62 62 62 62 61 61 60 59 58 57 57 57 58 52 52 59 61 61 63 62 62 63 63
47 51 51 52 52 55 58 61 62 63 63 63 62 62 61 61 60 60 62 61 61 61 61 60 60 60 59 58 57 56 56 56 56 51 56 58 59 60 60 62 62 62 60
50 53 52 51 52 52 50 57 59 61 62 62 61 60 60 57 56 58 58 59 60 59 59 59 58 57 56 57 56 54 54 50 50 48 54 58 58 59 60 60 60 61 61
50 51 54 56 54 52 47 52 53 52 54 55 56 57 54 57 57 55 57 58 58 58 57 57 56 55 54 47 51 54 50 46 47 44 51 56 55 56 58 59 59 60 60
48 49 52 59 58 55 52 48 48 49 51 53 56 57 55 56 55 54 53 54 55 56 52 54 52 50 49 49 46 45 44 45 43 42 49 47 48 49 52 54 56 58 60
46 47 52 60 60 57 51 48 48 48 50 51 54 55 53 52 52 52 50 49 47 46 47 48 47 48 51 50 47 45 43 42 37 40 44 41 44 47 49 51 52 54 58
44 46 50 57 62 56 55 50 50 51 50 53 52 52 52 51 50 49 48 47 45 45 45 45 45 46 46 46 44 42 40 38 38 39 36 39 43 51 50 50 53 54 56
44 46 50 55 61 57 50 51 50 51 50 50 48 48 51 52 51 50 48 46 45 43 43 45 46 46 46 43 43 42 41 37 35 37 36 40 43 48 50 50 52 52 52
44 46 50 55 59 57 50 49 47 46 46 45 45 48 49 50 48 49 46 46 45 45 47 46 45 45 45 45 42 40 39 40 38 37 38 35 39 42 49 50 48 48 48
44 45 48 54 58 55 48 47 45 44 44 43 44 45 46 48 48 48 46 46 46 47 46 45 44 44 44 43 43 41 39 36 36 37 38 37 34 36 45 46 46 46 47
42 44 48 54 56 53 49 46 46 47 46 43 44 43 43 45 45 46 46 45 47 46 47 47 45 45 44 44 42 42 40 37 37 35 36 37 37 36 35 45 45 45 44
45 47 49 53 53 51 48 46 43 42 40 41 40 40 43 44 44 45 45 45 45 44 44 45 47 46 46 45 43 41 43 39 38 38 36 36 36 39 37 38 38 35 41
47 48 50 50 49 45 42 39 37 38 38 38 39 42 43 43 43 42 41 40 42 40 42 45 45 45 46 46 45 45 45 44 42 39 39 38 36 37 39 38 38 36 36
42 42 41 41 40 39 37 39 40 41 40 41 42 41 40 39 39 38 39 39 39 39 41 42 43 43 44 45 44 43 41 40 41 41 40 40 40 38 37 38 38 37 33
42 40 39 40 41 42 41 39 39 39 39 37 38 38 38 40 39 39 39 38 39 40 39 41 41 41 41 42 43 42 40 38 39 39 40 41 40 41 39 37 38 36 33
43 42 41 41 40 41 42 39 40 39 38 39 40 40 41 41 38 35 34 34 38 40 41 41 38 42 42 39 39 38 41 44 42 41 41 40 40 40 41 39 37 35 33
43 44 43 40 41 41 42 41 41 40 40 40 39 38 37 33 33 32 32 34 38 39 39 41 43 43 42 42 41 40 40 40 40 39 38 39 40 40 40 39 39 34 33
42 42 41 40 39 40 41 42 41 40 39 36 36 35 33 33 32 32 32 36 38 40 40 42 41 40 40 39 39 38 37 36 35 34 34 36 35 41 41 43 40 38 36

GFSSE_sfc_30mbdewp_024.txt.gz
Dewpoint
63 67 70 70 70 69 69 68 68 69 69 69 68 69 69 70 69 68 67 66 65 64 63 64 65 66 65 66 66 66 66 66 66 66 65 64 64 66 66 67 66 64 67
64 67 70 70 70 70 69 69 69 69 69 68 68 69 68 69 67 66 65 65 65 64 65 65 66 66 66 65 65 65 65 65 65 65 64 63 64 65 65 66 67 67 67
64 65 68 70 70 70 70 70 70 69 69 69 69 69 68 67 66 65 64 64 64 64 64 65 66 66 65 64 64 63 63 64 63 63 63 62 63 64 64 66 67 67 66
63 64 66 68 69 69 70 70 70 69 69 68 68 68 68 66 66 65 65 64 64 64 64 65 66 65 65 64 63 63 63 62 61 61 60 58 61 64 61 64 65 66 66
62 64 65 66 67 67 68 68 69 69 69 69 68 67 67 66 66 66 65 64 64 64 64 65 65 65 64 64 63 62 61 62 63 61 57 58 60 64 63 64 64 65 65
59 62 63 63 64 65 66 66 67 67 67 68 68 68 68 67 66 65 64 64 64 64 64 64 63 62 62 62 62 62 62 62 61 58 56 60 60 64 62 63 64 64 63
54 58 60 63 64 65 64 65 65 65 66 67 66 66 66 65 65 65 64 65 65 65 64 64 63 63 64 63 63 62 62 62 61 59 58 62 62 52 61 63 63 63 63
50 54 57 63 63 64 64 64 64 64 65 65 66 65 65 65 65 64 64 64 63 63 63 63 63 63 62 61 60 59 59 59 58 58 58 62 63 62 62 63 63 62 63
48 51 56 59 61 62 63 63 63 63 63 63 63 63 63 63 63 63 63 62 62 62 62 61 61 61 60 59 58 57 57 57 58 57 57 60 61 62 62 63 63 63 63
48 50 54 57 59 60 61 61 62 62 62 62 61 61 61 61 61 62 61 61 61 60 60 60 59 59 59 59 58 58 56 55 55 56 58 60 60 60 60 61 61 62 63
49 53 52 52 53 59 59 60 61 61 62 62 61 59 60 61 61 60 58 58 59 58 58 58 57 56 56 57 57 57 56 53 52 49 57 58 59 59 60 60 60 60 62
50 52 55 54 53 51 48 57 61 60 61 62 61 59 59 57 57 55 58 58 58 58 58 57 57 56 55 53 55 56 56 52 48 47 57 56 55 55 57 58 59 60 60
49 49 56 58 56 55 52 49 53 54 55 58 59 57 58 56 58 58 59 59 59 59 58 57 56 56 54 53 52 51 49 47 46 46 52 51 50 50 52 53 55 57 59
48 49 58 59 58 55 55 52 51 53 53 55 55 56 55 55 55 53 53 50 50 50 50 49 49 51 51 52 52 49 47 46 44 43 47 46 45 46 48 51 53 54 56
46 48 53 60 61 58 55 54 53 52 55 54 54 54 55 54 54 54 52 51 50 49 47 49 48 48 50 49 49 47 45 44 43 41 45 42 41 44 48 49 51 54 55
44 48 54 58 63 59 54 53 52 54 55 54 52 51 53 54 54 53 51 51 50 49 49 48 48 50 50 49 48 47 45 43 42 42 42 43 43 45 50 49 50 52 55
45 47 52 61 60 59 53 51 50 50 47 48 50 49 50 51 51 51 51 50 50 51 50 50 50 49 49 48 48 47 47 44 43 42 41 43 42 46 47 49 51 50 49
44 47 51 52 60 59 54 51 48 48 47 46 46 48 48 49 50 50 51 51 51 52 51 51 50 49 48 48 47 47 45 44 43 43 42 41 42 41 45 48 50 48 48
47 46 47 52 56 57 54 50 49 48 48 47 48 46 48 46 48 49 49 50 51 50 50 50 49 49 48 48 47 46 47 46 43 41 41 41 42 41 43 47 48 48 48
48 48 49 55 56 54 51 49 47 45 45 45 44 46 47 46 48 47 47 47 48 46 46 46 48 48 48 48 47 46 47 47 47 44 41 42 42 41 40 44 48 47 47
49 50 51 50 48 46 45 41 42 43 44 43 44 46 44 45 43 44 44 44 44 44 45 46 46 45 45 47 47 46 46 47 48 46 45 42 41 41 42 43 43 40 42
43 42 42 42 43 43 43 42 43 43 43 44 44 42 43 43 43 43 43 42 43 43 43 44 44 45 44 45 44 44 41 42 44 43 45 43 42 41 41 42 42 40 40
44 43 42 42 43 44 45 42 42 42 43 42 43 43 44 45 44 43 44 43 42 42 42 42 43 42 43 44 44 43 40 39 41 42 43 45 46 46 43 41 41 40 41
44 44 42 42 42 43 44 43 43 43 42 43 43 42 43 42 41 38 37 39 40 43 42 43 44 45 44 42 43 41 41 41 41 39 41 41 44 45 47 47 47 46 43
46 45 43 41 40 43 43 44 44 43 43 42 41 41 39 40 39 38 37 38 41 42 42 45 43 41 41 40 39 39 38 37 39 37 36 37 37 38 40 43 45 45 46
44 44 43 41 41 42 41 42 41 41 41 40 41 40 40 39 37 37 37 39 40 42 43 42 41 40 39 39 38 38 37 35 35 34 33 33 34 36 37 40 39 43 45

GFSSE_sfc_30mbdewp_027.txt.gz
Dewpoint
67 70 70 70 69 68 68 69 69 69 69 69 70 70 70 69 68 67 67 67 66 66 65 66 67 67 66 65 66 66 65 65 64 64 65 64 65 65 66 67 65 67 68
68 70 70 70 69 69 70 69 69 69 69 70 69 70 69 67 66 66 66 66 65 65 65 66 66 66 66 65 64 64 65 64 63 63 63 63 64 64 65 67 66 67 67
67 69 70 70 70 71 70 70 70 69 69 69 69 69 68 67 66 66 65 65 64 64 65 66 66 66 65 64 63 63 63 63 63 62 63 59 63 63 62 64 65 65 66
66 68 69 69 70 70 70 70 70 69 69 69 69 68 67 66 66 65 65 65 65 65 65 65 65 66 65 65 64 63 62 62 62 62 60 58 62 62 62 63 65 66 66
65 66 67 67 68 68 69 69 69 69 69 68 68 68 67 67 67 66 65 65 65 65 65 64 63 63 62 63 63 63 63 62 62 60 58 60 64 59 60 62 61 64 64
62 63 64 64 65 66 67 67 67 68 68 68 68 68 67 66 65 64 65 64 65 65 64 64 63 62 63 63 63 63 62 62 62 60 59 62 63 63 64 63 63 62 64
59 62 63 64 65 65 65 65 65 66 66 66 66 66 66 65 65 65 65 65 65 64 63 64 64 64 63 62 61 60 60 60 60 58 58 62 59 56 61 63 62 62 62
57 60 62 64 63 63 63 63 63 64 65 65 65 65 65 65 65 64 64 63 63 63 63 62 62 61 61 60 59 58 57 57 57 56 61 62 61 61 62 61 61 62 63
55 57 61 62 62 62 62 62 62 62 62 62 62 63 63 63 64 63 62 62 61 61 61 60 59 59 59 59 58 58 57 57 57 55 56 61 63 63 63 63 63 64 63
53 56 57 60 61 61 62 61 61 61 61 60 60 61 61 61 62 62 60 60 59 59 58 58 57 56 57 58 58 58 58 58 53 53 58 60 61 61 61 61 61 62 62
51 55 58 58 59 59 60 60 60 60 60 59 60 60 60 60 60 62 60 59 58 58 57 56 55 56 56 56 54 55 56 56 53 52 58 60 60 59 60 60 60 61 61
51 54 55 56 59 58 57 60 60 61 61 61 61 61 60 60 60 60 58 58 58 58 58 58 56 56 57 55 53 54 56 54 50 47 56 58 58 57 57 58 59 60 60
51 54 55 52 53 55 55 58 60 60 61 61 61 57 56 57 58 58 59 58 58 59 58 58 57 57 56 54 53 52 51 49 46 45 52 56 54 53 52 53 55 56 58
51 55 56 55 54 55 54 53 55 56 58 59 57 55 54 56 52 54 52 52 53 54 56 56 54 53 53 52 53 52 49 46 44 44 48 51 50 49 48 50 52 54 55
50 56 58 57 56 55 53 53 52 54 55 55 55 54 53 55 52 53 52 51 50 50 49 48 48 47 48 48 48 49 48 45 44 43 43 47 46 46 46 46 49 52 54
49 57 59 59 59 57 54 52 53 53 53 54 54 53 53 54 53 53 51 52 50 50 51 50 49 49 49 49 49 49 47 46 43 42 42 43 47 45 46 47 48 49 52
48 57 61 62 60 59 54 51 50 54 48 51 50 51 52 51 50 51 50 51 51 52 51 50 50 51 49 49 49 49 49 48 45 43 41 43 43 45 47 48 49 49 52
55 56 61 62 60 63 54 50 49 49 48 47 50 50 50 50 50 50 48 48 50 50 49 49 49 49 49 49 48 48 48 47 46 45 42 42 43 43 45 47 49 52 51
49 51 55 60 62 59 54 51 50 48 46 46 47 48 47 48 49 48 47 47 48 49 48 48 48 49 48 47 47 47 47 46 47 46 44 43 42 43 41 44 48 51 51
52 52 50 50 51 53 51 49 48 47 47 46 46 47 45 47 44 43 43 44 44 43 44 44 44 44 45 44 45 46 47 48 48 48 47 43 42 43 42 42 46 48 49
44 43 44 43 44 43 42 41 42 42 43 43 45 43 42 45 45 44 44 42 42 42 43 43 43 43 43 44 43 44 45 45 45 47 48 47 45 43 42 43 43 46 46
42 42 43 43 43 43 43 44 44 44 44 45 46 45 45 43 42 43 43 43 43 42 42 42 41 41 43 44 43 43 39 40 42 43 44 46 47 49 49 47 45 44 42
42 42 42 43 43 43 43 43 43 44 43 43 42 42 43 42 40 39 39 39 39 43 42 41 44 43 42 43 42 41 39 39 39 41 41 43 44 42 43 47 48 49 47
44 44 42 42 42 43 43 44 43 43 41 42 42 42 41 40 39 38 38 38 40 41 40 45 42 40 39 38 39 39 39 39 35 32 39 39 38 38 39 41 45 47 49
44 43 42 42 43 43 44 44 44 41 41 42 42 41 40 38 37 37 36 37 38 42 44 41 40 40 39 37 37 38 37 36 38 35 32 35 34 35 37 38 40 43 46
44 43 43 42 42 43 43 43 42 42 43 41 40 38 37 37 37 36 36 40 42 42 42 42 41 40 39 39 37 36 36 34 33 33 32 31 32 33 33 36 37 40 42

GFSSE_sfc_30mbdewp_030.txt.gz
Dewpoint
68 70 70 69 68 69 69 69 69 69 69 71 70 70 69 68 68 68 67 67 67 66 66 67 66 66 65 65 65 65 65 64 64 64 64 63 64 64 64 65 67 67 67
69 70 69 69 69 69 69 69 69 70 70 70 69 69 68 67 67 66 66 65 65 65 66 66 66 66 65 64 64 64 64 63 62 63 63 62 65 62 63 64 65 66 67
69 69 70 70 70 70 69 69 70 70 69 69 68 68 67 66 66 65 65 65 65 65 66 66 65 65 65 64 64 63 63 63 62 62 61 58 64 62 63 65 65 65 66
69 69 70 70 70 70 70 70 69 69 69 69 68 67 66 66 66 65 65 66 65 65 65 64 64 64 64 64 63 63 63 63 62 62 58 59 63 60 60 62 63 63 64
67 68 69 69 69 69 69 69 69 69 69 69 68 67 67 67 66 65 65 65 65 64 64 63 62 62 62 63 63 63 62 62 62 60 59 62 63 63 62 61 61 62 63
65 66 66 67 68 68 68 68 69 69 68 68 68 67 66 65 64 64 65 65 65 64 63 63 63 63 63 62 61 60 60 60 60 58 58 61 62 57 62 63 62 62 62
61 63 64 64 65 66 66 66 67 67 67 67 67 66 65 65 65 65 65 64 63 63 63 63 63 62 61 60 60 59 59 59 58 56 60 61 62 64 63 63 62 61 61
60 62 63 64 64 64 64 64 65 65 65 65 65 65 65 65 64 63 62 62 62 61 61 60 60 59 59 59 59 58 59 59 57 55 57 61 61 60 62 62 61 62 61
59 60 62 63 63 62 61 61 62 63 63 63 63 63 63 63 62 62 62 61 60 59 59 57 56 56 57 57 56 55 56 57 56 53 53 60 63 63 62 63 63 62 63
57 59 60 62 61 60 60 60 60 60 61 61 61 61 61 62 62 62 61 60 59 59 57 56 55 55 56 55 54 55 55 57 54 53 56 59 62 62 61 62 62 62 62
55 57 59 59 59 59 60 61 61 60 60 60 60 60 60 60 61 62 60 58 59 58 57 56 56 55 55 55 54 54 56 54 53 49 53 58 61 61 60 60 60 61 61
53 55 56 57 57 58 59 61 59 60 60 60 60 60 60 60 60 61 60 59 59 58 58 58 58 58 57 55 54 54 53 53 52 46 50 55 60 58 57 57 59 60 60
53 56 56 58 58 56 57 59 59 60 60 61 61 61 60 60 60 60 58 59 58 58 58 58 57 57 55 55 54 53 52 51 48 45 45 55 57 55 53 52 54 55 57
53 55 55 57 58 56 55 57 58 59 60 60 60 58 57 58 54 56 57 56 55 53 55 56 55 53 52 52 51 51 51 51 47 45 45 50 52 53 50 49 49 52 54
53 54 54 55 55 54 53 55 55 57 58 60 57 55 55 53 52 53 52 52 51 51 50 49 49 48 48 49 49 49 49 48 47 45 44 46 50 50 49 47 47 47 50
53 55 57 55 57 57 54 53 53 55 56 56 55 54 54 54 52 53 50 51 50 51 52 50 50 50 50 50 50 50 50 49 48 46 44 43 47 49 49 47 47 47 47
54 58 57 60 60 57 56 54 52 53 54 55 53 53 53 53 52 50 50 49 50 51 50 49 49 49 48 49 49 49 49 49 49 48 46 44 43 48 48 48 49 48 48
57 60 61 58 55 57 59 57 52 51 48 51 51 52 52 51 51 50 48 48 48 48 46 46 46 44 45 45 46 46 47 48 47 47 47 45 43 43 46 49 49 49 49
57 61 60 59 57 54 59 57 52 50 48 49 49 50 49 50 48 47 46 46 45 43 43 45 43 44 42 43 43 44 44 46 46 47 48 47 45 44 43 44 49 49 48
53 56 56 58 58 57 56 50 47 45 45 47 47 45 46 44 44 44 45 44 44 43 43 42 42 42 41 42 43 42 45 45 46 46 47 48 47 45 44 43 44 49 49
45 45 47 46 46 45 45 43 43 43 44 45 44 45 44 43 42 41 41 41 41 41 43 43 43 40 42 43 43 41 43 42 43 42 44 46 47 48 48 49 46 44 46
45 44 44 43 42 43 44 44 44 44 44 43 43 43 42 40 39 37 38 38 39 42 41 41 43 43 44 42 40 41 39 38 41 36 41 44 42 41 41 41 46 49 46
42 42 42 42 42 43 43 43 44 44 43 42 42 41 40 38 38 38 37 37 38 40 40 42 42 41 41 40 40 35 33 33 34 36 32 39 38 38 38 38 41 47 49
42 42 42 42 43 43 44 43 42 42 40 42 41 40 39 38 37 37 37 38 40 42 43 43 41 40 39 36 39 38 38 37 33 30 34 32 35 33 34 36 39 42 47
42 42 42 42 43 44 44 44 43 41 43 42 41 38 36 37 36 37 40 41 42 42 42 41 40 40 39 38 37 37 35 34 36 33 30 32 32 33 34 34 38 39 44
44 43 43 43 42 44 44 43 43 42 41 39 37 35 36 36 35 39 41 41 42 41 41 40 40 39 39 38 37 36 34 33 31 31 31 31 31 32 32 33 34 38 40

GFSSE_sfc_30mbdewp_036.txt.gz
Dewpoint
67 69 69 69 69 69 68 68 69 70 70 70 69 69 68 68 67 67 67 68 67 66 65 66 66 65 64 64 64 64 64 63 63 63 63 62 64 61 65 66 66 65 66
68 69 69 69 69 69 69 69 70 70 69 68 68 68 67 67 66 66 66 66 66 65 64 64 64 64 64 64 64 64 63 63 63 63 61 61 64 62 63 65 65 65 65
68 68 69 69 69 70 70 70 70 69 68 67 67 67 66 66 65 66 66 66 65 64 64 63 62 62 61 62 62 62 62 62 62 62 61 60 62 63 62 63 63 65 65
68 69 69 69 70 70 70 70 69 68 68 67 67 67 66 66 66 66 65 65 64 63 62 60 60 61 62 61 61 60 60 60 59 59 58 59 62 63 61 62 62 63 64
68 69 69 69 69 69 70 69 69 69 68 68 67 66 66 66 65 64 65 64 63 60 59 59 60 60 60 60 59 59 58 58 57 55 58 59 62 63 63 62 60 61 62
67 68 69 69 69 69 69 69 69 68 68 68 67 66 66 64 63 64 65 63 61 60 59 59 59 59 59 59 58 58 58 58 55 52 54 60 62 64 63 63 63 62 62
66 68 68 68 68 69 68 68 68 68 68 68 67 66 64 63 64 64 63 61 61 59 58 58 57 57 57 56 56 57 57 57 54 52 52 55 60 63 63 62 63 62 62
65 66 66 67 68 68 68 68 68 67 67 67 66 65 64 64 64 63 61 60 59 57 56 56 56 55 56 56 56 57 57 58 52 50 51 56 59 63 62 60 61 61 62
62 63 64 65 65 66 66 66 66 66 65 65 64 64 64 63 62 61 60 59 58 57 56 56 56 56 57 57 57 57 57 57 51 50 49 54 60 61 60 59 60 61 62
60 60 60 62 62 62 63 63 63 63 63 63 62 62 62 62 61 60 60 59 58 57 58 58 58 58 57 57 56 56 56 54 52 50 47 48 57 57 59 61 60 60 60
58 59 60 60 59 59 60 62 62 62 62 61 61 61 61 60 61 61 60 59 59 59 59 59 59 59 59 57 56 56 54 53 52 51 47 47 52 53 56 59 60 59 59
54 56 58 59 58 58 59 60 59 60 60 60 60 60 59 59 59 60 61 60 60 59 59 58 58 57 56 54 53 53 52 52 52 51 49 49 51 52 53 55 58 57 57
52 55 57 58 57 57 57 58 58 59 59 59 59 59 59 59 59 59 59 58 57 56 53 54 53 53 50 50 50 51 50 50 51 50 50 51 52 52 52 50 53 54 55
51 53 56 57 56 56 57 58 58 58 59 59 59 60 59 58 58 58 57 56 52 51 50 50 50 49 49 49 48 47 46 47 49 49 49 50 51 53 53 52 52 53 54
50 53 55 56 56 56 56 57 57 58 59 59 60 60 58 57 55 54 52 52 51 51 51 49 48 47 45 45 44 43 43 45 46 47 48 48 49 51 52 53 52 51 52
50 52 55 56 58 56 55 56 56 57 58 59 59 57 56 54 53 52 50 50 49 48 47 46 45 44 42 42 40 41 42 43 43 45 47 47 48 50 50 51 52 53 52
51 54 55 57 58 58 56 55 54 55 55 56 55 54 53 53 51 49 47 45 45 45 45 44 43 42 41 41 40 41 42 42 42 45 47 48 48 48 49 50 50 51 52
53 57 59 58 59 57 54 53 52 50 50 51 51 49 47 47 45 43 41 41 43 43 43 42 42 41 40 41 41 41 42 42 44 45 44 47 47 45 46 45 46 50 50
58 58 59 58 59 57 54 51 50 47 46 46 44 43 41 41 40 38 38 39 39 39 40 41 40 41 39 41 41 41 41 41 44 39 40 43 42 41 38 37 39 42 46
57 58 58 59 58 55 52 49 46 44 43 42 40 39 39 39 39 38 37 38 39 37 37 39 39 40 41 42 40 42 40 42 38 34 39 41 38 38 37 35 36 37 42
53 55 57 58 56 52 49 45 43 42 41 40 40 40 40 39 37 36 35 36 38 38 39 40 41 41 42 41 40 36 39 41 34 31 38 40 36 36 34 35 34 35 41
50 51 49 46 45 44 44 43 42 42 41 40 40 39 39 37 36 36 37 38 40 40 41 42 41 40 41 40 36 35 30 31 34 32 31 36 34 35 34 34 35 34 39
41 41 41 41 41 42 43 44 44 43 42 40 40 38 38 37 36 37 38 39 40 40 40 41 40 38 37 38 38 34 30 29 33 32 31 32 33 33 33 34 34 34 39
41 42 41 42 42 43 44 42 41 40 39 41 40 38 37 36 37 39 40 40 39 40 38 40 40 39 37 35 36 37 37 36 32 30 31 30 33 32 33 33 34 33 39
42 42 42 43 43 44 44 43 42 41 42 40 38 36 36 35 37 40 39 39 39 40 40 40 39 38 38 36 36 36 35 34 33 33 29 29 30 32 33 33 34 33 36
43 42 43 43 43 43 43 43 42 42 40 37 36 35 34 35 35 38 39 39 40 40 39 39 39 38 37 36 36 36 35 34 32 33 30 31 32 33 33 33 33 32 32

GFSSE_sfc_30mbdewp_042.txt.gz
Dewpoint
62 65 70 69 69 69 69 70 70 70 70 69 69 69 69 68 68 68 68 67 65 65 64 64 64 64 63 63 63 63 63 63 63 63 63 64 64 63 63 64 63 58 65
64 65 69 69 69 69 69 70 70 70 69 68 68 68 67 67 67 67 67 65 64 63 63 62 62 62 62 61 60 59 60 60 60 61 61 63 65 63 62 63 64 61 65
64 65 67 69 69 69 70 70 70 69 68 67 67 67 66 67 67 67 65 64 63 60 60 60 59 57 57 57 57 57 57 58 59 60 59 53 58 64 62 63 63 63 63
64 64 65 69 69 70 70 70 69 68 67 67 67 66 66 67 66 65 65 63 60 58 57 56 56 56 57 58 58 58 58 58 56 56 54 55 56 63 63 62 62 63 62
63 63 66 69 69 69 69 69 69 69 68 68 67 66 66 65 64 64 63 62 59 57 56 55 55 56 57 58 58 58 59 56 54 51 51 58 56 62 63 61 58 60 63
63 64 68 69 68 69 69 69 69 69 68 67 67 66 64 63 64 63 62 61 58 56 56 56 55 56 57 59 59 59 57 53 53 45 48 54 57 62 61 61 62 62 63
63 64 67 69 68 69 69 69 69 68 68 67 67 65 63 63 62 61 61 59 58 57 57 57 58 58 59 59 59 59 56 53 44 44 45 48 50 58 60 61 61 61 61
65 65 66 68 69 69 69 68 68 67 68 67 65 65 64 63 62 60 59 58 58 58 58 58 59 59 59 59 59 58 56 53 43 41 40 42 55 54 54 59 62 61 61
66 65 65 65 67 68 67 67 67 67 66 65 64 64 63 62 61 60 60 59 59 59 59 59 59 60 60 58 57 55 54 52 46 45 42 44 56 55 53 54 57 61 61
65 62 60 60 61 61 63 66 66 65 64 64 63 62 61 60 59 58 58 60 60 60 60 60 60 59 56 54 54 53 52 52 45 44 44 50 56 56 56 54 55 57 59
61 60 58 57 58 57 57 63 63 63 63 62 61 61 59 56 56 56 59 61 61 60 60 59 57 54 52 51 50 50 50 44 44 43 43 53 55 55 56 57 57 58 58
51 52 55 55 56 56 54 57 57 56 56 57 57 58 57 59 57 56 59 59 58 55 54 54 52 50 49 47 45 44 43 44 43 43 42 51 52 53 54 55 56 56 58
47 49 52 56 57 55 55 55 53 55 57 59 60 60 60 59 59 57 56 55 54 52 50 51 50 49 50 47 44 44 43 41 40 39 43 49 51 52 53 53 54 55 56
48 49 52 55 57 57 54 55 56 56 58 58 59 61 60 59 60 59 56 54 53 52 52 51 49 49 47 45 44 43 42 41 40 39 41 46 51 52 53 53 54 55 56
48 50 52 54 55 56 57 57 58 58 58 60 60 62 61 60 59 56 55 52 51 49 48 47 46 45 44 43 43 43 41 41 40 39 39 48 50 51 51 51 52 53 54
49 52 55 56 56 56 57 58 58 58 59 59 61 61 60 59 57 55 53 50 48 47 46 45 45 43 42 42 40 41 40 40 40 40 39 39 46 45 45 46 47 47 48
50 55 57 58 58 57 57 55 55 56 57 59 60 59 59 58 56 53 50 47 45 44 43 42 42 40 40 39 38 38 38 37 37 39 37 37 39 43 39 40 41 42 43
50 56 58 59 58 57 57 56 56 56 56 57 57 57 55 52 50 47 44 43 44 43 41 41 39 38 36 35 35 33 32 33 32 37 34 38 36 33 33 36 36 37 37
52 57 58 58 58 57 56 56 57 54 53 50 48 48 47 46 45 43 43 43 42 40 40 37 34 32 31 30 28 24 27 28 25 30 33 36 34 34 32 32 33 33 33
55 58 59 59 57 57 57 56 54 48 45 44 43 43 43 43 44 42 42 42 38 34 31 33 33 32 32 33 32 27 30 28 29 33 32 29 31 32 31 32 32 28 31
59 59 58 58 59 59 56 52 46 44 43 43 43 43 43 42 43 42 38 35 32 31 34 34 32 29 28 32 32 24 23 25 36 34 30 30 29 31 31 31 31 31 30
57 58 58 58 58 56 52 47 45 44 43 42 42 43 42 42 40 36 35 32 33 31 32 33 34 31 27 28 33 29 19 19 20 30 28 29 30 31 28 29 32 32 32
57 57 56 54 53 49 46 46 45 45 43 41 42 41 41 40 37 35 35 34 34 33 31 33 33 32 29 28 30 30 26 20 23 25 26 26 28 28 29 29 30 31 31
52 51 46 47 47 48 47 44 43 40 40 43 43 41 40 37 35 34 35 36 36 35 35 33 31 34 32 29 27 27 29 29 29 27 26 24 23 23 25 27 27 27 29
45 45 45 45 44 45 46 45 45 44 43 43 42 42 38 37 35 34 35 36 36 35 35 36 36 35 33 31 30 29 28 27 26 27 27 22 20 21 23 23 25 24 24
45 46 45 44 45 46 46 46 46 44 41 39 38 35 33 33 32 33 35 35 36 36 36 35 36 35 34 33 32 31 30 28 24 25 26 24 23 20 21 20 20 22 22

GFSSE_sfc_30mbdewp_045.txt.gz
Dewpoint
60 64 69 69 70 70 70 70 70 70 70 69 69 69 69 68 68 68 67 66 64 64 64 63 63 62 61 60 59 60 60 61 61 62 63 64 64 62 62 64 62 60 65
62 64 69 69 69 70 70 70 69 70 69 68 68 68 68 67 67 66 65 64 63 62 62 61 60 58 56 56 57 57 57 58 60 60 61 64 64 62 63 63 64 62 63
63 64 65 69 69 70 70 70 69 69 68 68 67 67 67 67 67 65 64 63 60 59 58 56 55 55 56 58 58 59 59 57 57 58 60 59 60 63 62 64 64 63 63
63 64 64 69 69 70 70 69 69 68 67 67 67 67 67 66 65 64 62 62 59 57 56 54 55 57 58 58 58 59 58 57 56 57 53 51 59 62 62 61 61 62 62
63 63 66 68 70 70 70 69 68 68 68 67 67 66 65 64 64 62 61 61 58 56 55 54 56 57 58 59 59 58 56 54 54 53 49 52 56 61 62 61 58 60 62
63 66 67 68 69 69 69 68 68 68 68 67 67 65 64 63 62 61 61 59 57 57 57 56 57 58 59 59 59 59 56 54 54 43 46 52 54 59 61 61 62 61 62
65 65 66 68 68 68 68 68 68 68 68 68 66 64 64 62 61 61 60 59 58 58 58 58 58 59 60 59 58 57 53 52 45 38 39 48 52 54 55 59 62 61 61
64 65 66 67 67 68 68 68 68 68 67 66 65 65 63 61 60 59 59 59 59 58 58 59 60 60 59 58 57 54 52 51 44 42 39 47 57 56 55 55 59 62 61
65 65 64 65 67 68 67 67 67 67 66 65 65 64 62 62 61 61 60 59 59 59 59 60 60 59 57 55 54 53 52 52 49 44 43 48 57 57 57 56 56 57 58
64 63 59 61 61 63 65 66 66 65 64 64 63 61 60 59 58 58 59 60 60 60 60 60 59 57 54 52 50 49 50 50 44 42 46 51 55 55 56 57 58 58 59
58 56 55 55 56 58 60 64 64 63 63 62 60 60 58 54 55 56 58 61 60 59 59 58 56 52 52 53 46 43 45 43 44 42 44 52 52 53 54 55 56 57 57
53 52 54 54 54 53 51 56 55 54 55 56 56 57 56 56 57 56 57 59 56 54 54 53 51 51 51 46 45 45 43 44 42 41 44 48 49 49 52 54 55 56 57
48 48 52 54 54 51 52 52 51 54 57 58 58 57 59 56 56 56 56 56 54 52 51 51 50 49 50 48 46 45 45 44 43 42 46 47 48 48 49 51 54 56 56
46 48 51 54 55 53 52 50 54 53 55 55 59 60 58 58 59 57 54 53 52 50 52 50 48 49 48 47 46 46 45 44 43 43 43 48 49 49 49 50 51 52 53
46 48 49 52 54 56 55 56 56 56 57 60 60 62 61 61 59 58 56 53 52 50 48 48 48 47 46 45 45 44 43 43 43 42 42 49 49 48 48 48 49 49 49
47 50 51 53 55 56 58 59 58 59 58 60 62 62 61 61 59 56 55 52 50 49 48 46 46 44 44 43 42 42 41 41 40 40 39 39 47 46 44 43 43 44 44
50 52 54 56 57 57 56 54 55 56 56 58 60 61 60 59 57 55 52 49 47 45 45 43 44 43 40 39 37 36 36 33 33 35 38 36 36 44 41 40 38 38 38
52 55 56 57 58 57 57 56 55 56 56 57 58 57 56 54 52 49 47 46 45 44 43 42 37 35 33 32 32 31 28 27 28 30 29 32 34 35 35 36 35 34 35
53 56 57 59 59 58 57 58 57 56 55 54 51 51 49 47 46 45 45 45 43 40 37 35 34 32 31 30 28 30 29 27 30 27 28 32 33 32 33 32 35 35 35
52 57 58 58 59 58 58 58 56 55 51 47 45 45 45 45 45 44 44 43 38 36 36 36 35 32 30 28 27 30 31 26 25 28 33 33 30 31 31 31 31 30 34
54 57 58 58 58 58 57 54 53 49 46 44 44 44 44 44 44 43 39 37 37 33 33 34 34 32 30 29 27 27 28 30 28 28 29 31 30 29 30 30 29 30 30
57 58 58 57 58 58 55 51 48 45 43 43 44 45 44 44 41 37 39 36 35 34 32 33 34 33 31 31 29 27 26 25 25 26 28 27 29 27 28 27 29 29 30
56 57 57 56 54 51 46 45 45 44 44 42 43 43 43 42 39 37 37 36 35 33 32 34 33 32 30 30 29 27 25 24 25 25 26 26 29 29 25 25 25 26 27
57 55 53 49 46 45 44 43 42 40 41 43 42 41 42 40 38 36 34 35 36 35 34 33 32 34 33 30 29 28 30 29 26 26 25 24 26 23 26 23 26 24 25
51 48 44 44 43 45 45 43 44 43 43 42 41 43 42 40 36 34 34 35 34 34 33 34 34 34 34 33 30 30 30 29 29 27 24 24 25 24 23 25 25 23 21
47 45 45 44 43 45 46 46 45 45 41 39 40 38 36 33 31 31 32 33 34 33 31 31 32 31 34 33 32 33 32 30 27 27 27 28 27 24 23 22 22 20 21

GFSSE_sfc_30mbdewp_051.txt.gz
Dewpoint
66 70 71 71 71 71 71 70 70 70 70 70 69 69 69 68 67 66 65 64 62 58 56 55 56 56 56 57 58 59 60 61 63 64 63 63 63 62 62 65 64 64 65
68 70 71 71 70 70 70 70 70 70 69 69 69 68 68 67 66 64 63 61 58 55 55 57 57 57 57 58 59 59 60 61 60 61 63 63 62 62 62 64 65 65 65
68 69 70 70 70 70 70 70 69 69 68 68 68 67 67 65 64 63 61 60 57 56 57 57 57 57 57 57 58 58 58 60 60 61 63 62 62 61 61 63 62 63 62
67 69 69 69 70 69 69 69 69 68 68 68 67 66 65 63 62 60 60 59 57 57 57 57 57 57 57 58 57 56 56 59 60 62 60 59 60 61 61 61 61 61 60
65 68 69 69 70 69 69 69 69 68 68 67 66 65 63 62 60 59 61 60 58 58 58 57 57 57 58 57 55 55 56 58 55 54 54 55 55 57 59 61 62 62 61
66 68 68 68 69 69 69 69 68 68 67 66 65 63 61 60 60 60 62 60 59 58 58 58 58 58 56 54 53 53 54 55 50 51 56 59 57 57 57 58 62 62 62
66 66 66 67 68 69 69 68 68 67 66 66 64 63 62 60 60 60 62 61 60 59 58 58 58 57 54 52 49 48 49 55 50 52 56 58 59 57 58 59 60 60 60
64 64 65 67 67 68 68 68 67 66 66 65 63 63 62 62 61 61 61 60 60 59 59 59 57 54 53 51 50 48 46 50 50 52 56 57 58 56 56 57 59 60 61
65 64 66 67 67 67 67 66 65 65 65 64 62 61 60 60 60 60 60 60 59 59 59 57 56 53 52 51 49 49 49 48 48 50 51 55 56 54 54 55 56 57 58
65 64 65 65 66 66 66 65 64 64 63 61 59 59 58 58 58 59 59 59 59 58 57 56 53 54 53 52 51 49 49 47 46 50 52 53 53 51 52 54 55 56 57
62 63 65 65 65 66 65 63 63 62 60 59 58 57 57 58 58 59 58 58 57 56 55 54 54 53 53 53 54 51 48 48 47 48 50 52 51 51 51 53 53 54 54
61 62 62 64 64 63 63 62 61 61 59 58 57 57 57 56 57 59 58 58 57 56 54 54 54 53 52 50 49 49 48 47 47 47 50 51 50 50 50 50 51 51 52
59 59 62 63 62 60 61 59 59 59 58 57 57 57 57 60 58 59 57 58 58 56 55 54 54 52 49 49 50 49 48 48 48 46 50 49 49 47 47 48 48 48 48
57 56 57 59 59 56 60 58 56 58 59 59 61 62 62 60 61 60 59 59 57 55 51 49 47 46 46 45 46 45 45 45 45 45 49 49 48 46 46 45 44 43 42
54 54 55 55 54 55 59 61 61 61 62 62 62 62 62 61 59 59 56 53 51 48 46 45 44 45 43 41 39 38 38 39 34 34 43 49 47 47 45 43 41 40 40
54 54 55 55 57 60 59 58 59 61 62 61 61 61 60 60 58 54 51 49 47 46 46 44 41 39 38 38 35 35 34 34 31 31 34 42 48 46 44 41 39 38 37
53 54 54 58 59 57 57 57 57 59 60 60 58 57 56 55 53 51 49 47 47 46 44 41 38 37 36 36 34 33 36 34 32 33 34 34 47 44 43 39 37 36 36
52 54 55 59 56 56 56 56 56 57 58 58 56 54 52 52 50 48 47 46 48 43 40 39 38 37 36 36 35 32 34 34 35 31 33 33 36 43 43 40 36 34 35
52 54 58 56 55 56 56 56 55 56 55 55 52 50 48 48 48 48 46 42 42 41 39 38 37 38 37 36 33 33 34 32 34 32 34 33 36 36 37 37 36 35 35
54 58 57 58 57 57 57 57 57 55 53 50 48 47 47 47 48 48 45 40 41 38 38 39 38 37 37 36 36 33 32 32 33 33 32 31 32 31 32 31 30 33 35
58 59 58 57 57 57 58 57 56 52 49 47 47 47 47 47 45 44 43 41 39 37 39 39 38 36 37 38 34 32 33 34 32 32 32 30 31 31 29 30 29 31 30
58 59 58 58 57 57 58 57 53 50 48 47 47 48 47 45 44 41 40 39 38 37 37 38 37 38 37 36 34 35 31 31 33 32 31 31 30 31 30 29 30 28 30
59 59 58 58 57 57 59 55 52 49 48 47 46 47 46 43 41 41 40 39 38 38 37 38 37 35 36 36 36 33 31 29 32 32 31 31 30 30 30 30 28 29 26
59 59 59 58 57 57 58 53 50 46 45 45 46 46 45 43 40 39 37 38 37 38 37 38 38 37 35 33 35 35 34 34 31 30 31 31 30 29 29 29 29 28 27
59 58 58 57 57 57 51 50 47 45 45 46 47 46 44 42 40 38 37 38 38 38 39 36 34 34 35 34 35 34 34 34 34 32 31 30 30 30 30 29 29 25 24
57 57 57 57 57 50 47 47 45 45 46 45 45 45 44 44 43 39 38 37 38 35 32 32 33 32 33 34 35 36 35 34 35 35 33 31 30 30 30 29 25 24 26

GFSSE_sfc_30mbdewp_057.txt.gz
Dewpoint
67 69 70 70 70 69 69 69 69 69 69 68 68 67 66 65 63 61 60 60 59 57 57 57 57 57 57 58 58 60 64 64 64 63 63 62 61 62 62 62 62 63 64
68 69 70 70 69 69 69 69 69 69 68 66 66 66 65 63 61 61 61 60 59 57 56 56 56 56 59 61 62 61 62 64 64 64 63 62 61 61 61 61 61 59 59
68 69 70 70 69 69 69 69 69 68 67 65 64 64 63 62 61 61 61 60 58 55 54 55 55 57 62 64 64 62 63 64 63 63 62 61 59 58 59 60 60 59 59
69 69 69 69 69 69 68 68 68 67 66 64 63 62 61 60 60 60 60 60 58 55 54 53 54 55 58 60 63 64 63 60 59 57 56 56 57 57 58 58 57 57 58
68 68 69 69 69 69 68 68 68 67 66 64 63 61 60 59 59 60 61 60 58 55 54 53 53 55 57 58 58 58 59 59 59 58 58 58 57 58 58 59 60 60 59
68 68 68 68 68 68 68 68 68 67 65 64 63 62 60 59 59 61 61 60 58 55 54 54 55 56 57 59 58 55 56 57 57 58 58 59 57 57 57 58 58 59 60
68 68 67 66 67 68 68 68 67 66 65 64 63 62 61 61 61 62 61 60 59 57 55 55 56 57 55 56 57 55 55 56 55 56 57 57 57 56 57 57 57 58 59
65 66 65 66 65 66 66 67 66 65 64 64 63 62 62 62 62 61 61 60 60 58 57 55 55 56 56 55 53 54 53 51 51 53 55 56 56 55 55 56 56 55 55
64 64 65 64 63 62 63 66 65 65 64 63 63 63 62 62 61 61 60 59 59 58 57 56 55 55 55 54 53 51 52 51 50 52 53 56 55 55 54 54 54 54 53
64 64 64 63 63 64 65 65 64 63 63 62 62 61 60 60 60 60 59 59 58 57 56 56 55 55 55 54 54 52 50 50 48 49 52 55 54 53 53 53 53 52 52
61 61 61 61 63 63 64 64 63 62 61 60 60 60 59 59 58 57 58 58 58 57 57 57 55 52 50 49 50 50 49 48 48 48 50 53 50 52 52 52 51 51 49
58 59 60 62 62 63 62 63 62 60 59 59 58 58 57 57 57 58 58 58 57 57 56 52 49 48 44 42 41 42 43 41 40 47 51 52 49 50 50 50 49 47 46
59 60 62 62 63 62 61 61 60 59 58 57 57 56 56 58 58 57 58 57 55 53 48 46 43 42 39 38 37 38 35 35 35 39 51 50 47 46 48 47 46 45 45
59 60 61 62 62 61 60 59 59 57 56 56 56 57 58 57 58 58 56 55 48 47 44 42 40 38 36 35 35 35 33 33 33 34 38 50 49 44 46 45 44 45 43
58 59 59 62 61 60 58 57 57 57 57 59 60 60 60 59 58 56 51 48 46 43 40 38 37 36 35 34 36 35 33 34 33 33 35 38 45 48 44 43 42 42 42
58 58 61 61 59 59 58 57 58 60 61 61 61 61 60 57 53 50 48 47 43 40 39 37 36 35 35 34 33 34 33 34 33 33 36 36 44 48 43 41 40 39 40
57 57 60 59 58 59 58 58 60 61 60 59 59 59 56 53 50 48 47 45 41 40 38 37 37 36 35 34 33 33 32 33 33 33 33 41 46 47 45 40 38 36 35
55 56 58 58 58 58 58 59 60 60 58 57 56 56 54 51 49 48 47 44 41 40 38 37 36 36 36 35 34 33 32 33 32 32 31 32 33 33 35 37 36 35 35
54 56 57 58 57 57 57 58 58 57 56 54 54 53 51 49 48 46 43 41 40 39 38 38 37 36 35 35 35 33 33 34 32 31 31 30 30 30 30 32 37 40 36
54 57 57 57 56 56 56 56 55 54 53 51 51 50 49 48 45 42 42 40 39 39 38 36 35 38 37 35 35 33 35 34 33 32 31 31 31 31 30 31 29 28 35
55 57 56 56 55 55 54 53 52 51 50 49 48 48 48 48 44 41 40 38 39 37 36 36 37 36 36 37 34 33 34 33 33 33 32 31 30 30 30 31 30 29 29
55 56 56 56 55 54 54 54 53 51 49 48 47 47 48 48 44 41 39 37 39 38 37 37 37 36 36 36 32 32 28 30 33 33 32 32 31 31 30 30 30 29 28
55 56 56 55 55 54 55 54 52 48 47 46 46 47 47 45 43 40 39 38 37 37 36 37 36 34 32 34 35 29 26 26 31 32 32 32 32 30 31 30 30 29 26
54 56 56 56 55 55 56 53 51 49 46 46 45 47 46 44 42 40 39 39 38 38 38 37 37 35 33 29 33 35 34 33 31 30 32 32 32 32 32 31 30 28 25
56 56 57 56 56 56 56 55 51 49 46 46 46 46 45 43 43 41 40 39 39 39 35 32 32 31 33 31 31 32 33 34 33 32 30 31 33 33 33 33 31 27 26
57 57 57 56 56 56 57 55 52 49 46 45 46 46 44 43 41 39 39 38 35 32 31 31 31 31 30 31 32 33 33 32 33 32 32 32 32 33 33 31 29 27 27

GFSSE_sfc_30mbdewp_060.txt.gz
Dewpoint
68 69 69 69 69 69 68 68 68 68 68 68 67 66 65 63 62 61 61 60 60 57 56 58 58 58 58 61 64 64 64 65 65 64 61 61 60 60 61 60 60 59 60
68 69 69 69 69 69 69 68 68 68 67 66 66 65 63 62 62 62 61 60 59 56 57 58 60 62 62 61 63 65 65 65 64 63 61 59 58 59 59 60 61 59 59
68 68 69 69 69 69 69 68 68 67 66 64 63 63 62 62 62 62 61 59 58 57 57 61 63 64 63 62 64 65 63 62 62 60 59 58 57 57 57 58 58 57 57
68 68 69 69 69 69 69 68 67 66 64 63 62 61 61 62 62 61 60 59 58 57 56 59 61 63 63 65 64 62 60 60 60 58 57 58 57 58 58 59 59 59 59
68 68 68 69 68 69 68 68 67 65 64 63 62 61 61 62 61 60 60 59 58 56 54 55 58 60 61 61 61 61 61 61 60 59 58 57 57 57 57 58 59 59 59
68 68 68 68 68 68 68 68 67 65 64 63 62 61 61 61 60 61 61 59 58 57 54 56 57 59 59 58 59 60 60 59 58 57 57 58 57 57 57 57 57 58 58
67 68 67 66 66 68 68 67 66 65 64 63 62 62 61 62 61 62 61 60 59 59 56 56 57 59 58 57 57 57 57 57 55 56 56 56 56 56 56 56 55 55 56
66 66 66 65 65 65 64 66 66 65 64 64 63 63 63 62 62 62 61 60 59 59 59 58 57 56 56 56 56 53 53 53 53 54 55 55 56 55 55 54 54 53 54
65 65 65 65 65 63 64 66 65 64 64 63 63 63 63 63 62 61 60 59 58 58 59 59 58 57 56 55 55 55 53 52 51 53 55 56 55 54 54 53 52 51 52
63 64 63 64 63 63 63 64 64 63 63 63 63 62 61 61 60 60 60 60 59 59 58 57 57 57 57 56 53 52 51 50 48 50 52 56 53 53 53 52 51 50 50
61 61 62 62 62 62 61 64 63 63 62 62 61 60 59 59 59 57 59 59 58 59 57 54 51 47 46 50 51 49 44 44 48 49 51 54 52 52 52 51 49 48 47
57 57 58 60 60 61 62 63 62 61 60 59 59 57 57 57 56 59 59 58 58 55 53 50 46 43 39 38 39 38 36 36 41 49 51 52 48 50 50 49 48 46 46
57 57 59 60 60 62 62 61 60 58 58 58 57 56 56 59 58 58 56 56 52 48 43 40 38 37 36 37 36 34 34 34 34 36 50 50 49 45 48 47 47 46 45
56 56 57 59 62 62 61 60 58 57 56 56 55 56 57 58 57 57 55 50 47 43 40 39 37 35 36 35 34 34 34 33 33 34 35 43 48 47 47 45 45 45 43
57 57 58 62 61 60 59 58 57 56 56 56 56 57 59 58 58 54 49 47 43 40 38 36 36 35 34 34 34 33 33 33 34 35 36 42 46 48 45 44 42 44 42
58 58 59 61 61 60 58 57 57 57 58 59 59 59 59 58 55 51 47 43 40 38 38 37 36 35 34 34 33 33 33 33 32 35 41 47 51 47 44 42 40 41 40
58 59 59 61 60 59 57 57 58 59 61 60 60 60 57 55 51 48 45 41 39 38 37 37 36 36 34 34 33 33 33 33 32 31 35 38 37 42 39 39 38 37 36
57 57 60 60 59 59 57 57 59 60 60 59 58 57 55 52 49 47 43 40 40 39 37 36 35 35 35 34 33 33 33 32 31 31 30 31 31 30 31 38 38 39 38
56 56 58 59 58 58 57 58 59 59 57 56 56 55 52 49 48 46 43 41 40 38 38 37 36 35 35 35 34 34 34 32 32 31 30 30 30 30 30 34 36 35 38
55 56 57 58 57 57 57 57 56 56 55 54 54 52 49 48 46 44 41 40 39 38 37 36 36 38 36 35 35 34 34 33 33 32 30 30 30 30 31 31 29 29 35
55 56 57 56 56 56 56 55 54 53 52 50 51 50 48 46 44 41 40 39 39 37 36 36 37 36 35 36 33 31 34 33 33 33 32 32 31 30 30 30 30 29 29
54 56 56 56 55 56 56 54 53 52 50 49 48 48 48 45 42 41 39 38 38 37 37 37 37 36 36 36 31 31 25 28 32 34 32 33 31 31 30 31 30 30 29
54 55 55 56 55 55 54 53 50 49 48 47 47 47 47 46 42 40 39 39 38 38 37 37 35 33 32 34 34 27 20 20 30 32 32 32 32 32 32 33 31 31 27
53 55 56 56 55 54 54 52 50 49 47 46 46 47 47 46 43 40 39 39 38 38 37 36 36 34 30 26 31 35 33 31 29 28 32 32 33 32 33 33 33 32 28
53 55 56 56 55 55 55 53 51 49 48 47 46 46 46 44 42 40 40 39 39 38 36 34 33 32 32 30 30 30 31 32 33 32 30 31 32 33 33 33 34 31 28
54 55 56 55 55 55 55 54 52 51 49 46 45 45 45 42 41 40 39 38 35 34 33 32 31 31 31 31 32 32 32 30 31 32 31 31 31 32 33 33 31 28 26

GFSSE_sfc_30mbdewp_063.txt.gz
Dewpoint
66 66 69 69 69 69 69 69 69 69 69 68 67 66 64 63 62 62 62 61 60 60 59 60 61 64 64 63 64 65 65 64 63 62 60 59 59 60 60 60 57 57 58
67 65 69 69 69 68 68 68 68 68 68 67 66 64 63 63 62 62 61 60 60 59 60 61 61 61 64 64 64 64 63 63 62 61 58 57 57 57 58 58 59 58 58
66 65 67 69 69 68 68 68 68 67 66 64 63 63 63 63 62 61 61 60 61 62 64 65 63 60 64 65 64 62 61 61 61 60 58 53 56 58 59 59 59 58 58
66 65 66 68 68 68 68 68 67 66 65 63 63 63 64 63 61 61 61 61 63 64 64 64 62 62 65 63 62 61 61 61 60 58 54 53 54 58 59 59 59 59 58
67 66 66 68 68 68 67 67 66 65 64 63 63 63 63 62 61 61 60 60 61 61 62 63 64 65 63 62 62 62 61 61 60 54 54 55 54 57 57 57 56 58 59
67 66 67 67 68 68 67 66 65 64 63 63 63 63 63 62 62 61 60 59 59 59 59 62 62 60 61 61 61 61 60 59 54 52 53 56 55 57 56 55 56 57 57
67 67 66 66 66 68 67 66 65 64 63 63 63 63 62 62 62 61 61 60 59 59 59 59 58 59 59 59 59 59 58 57 51 52 53 54 56 56 54 54 53 54 55
67 65 65 65 66 66 66 66 65 64 64 63 63 63 63 63 63 62 61 61 60 59 59 59 59 59 58 58 57 56 55 54 51 52 52 52 55 54 53 52 51 52 53
65 65 66 65 65 64 65 65 64 64 63 64 64 64 63 62 62 61 60 60 60 60 59 58 58 58 58 58 56 55 53 53 51 52 51 51 54 53 52 50 49 50 50
64 64 64 63 60 62 64 64 64 63 63 64 63 62 61 60 60 60 60 60 60 61 60 59 58 58 56 55 55 53 51 49 48 50 51 52 53 53 51 49 48 48 47
62 63 63 59 61 61 58 62 63 63 63 62 61 60 60 59 57 55 58 60 59 58 56 53 52 52 51 50 46 44 42 47 47 48 49 55 52 52 51 49 47 47 47
58 59 60 60 59 59 61 63 63 61 60 60 59 59 58 58 58 57 58 59 57 54 52 49 46 43 38 37 36 37 35 38 43 47 48 52 49 50 50 48 47 46 46
56 56 57 58 60 60 59 61 60 59 59 58 58 58 58 58 59 58 57 54 50 47 41 40 39 38 39 37 37 37 36 34 34 35 42 48 51 46 49 47 47 45 44
56 56 55 55 53 61 60 59 59 56 57 57 57 57 58 58 59 58 56 50 46 43 42 40 40 40 38 38 38 37 36 34 33 33 34 46 48 48 48 46 46 44 43
55 55 55 55 61 61 61 59 57 57 56 58 58 58 60 58 58 56 52 47 43 41 40 39 37 37 37 36 35 34 34 35 37 36 40 52 51 48 45 44 43 45 42
54 55 56 58 61 61 59 59 57 57 57 57 58 58 60 59 57 52 48 44 42 40 39 37 36 35 35 35 35 35 35 34 38 43 44 45 46 45 44 42 40 41 39
54 54 55 59 61 60 59 57 57 56 57 56 58 60 60 59 55 51 48 43 40 41 40 40 37 37 35 34 36 34 34 34 34 36 38 39 39 40 40 39 38 38 37
55 56 57 58 61 60 58 57 57 58 59 60 61 61 59 57 54 50 44 42 41 41 39 38 37 36 36 34 34 34 32 32 33 33 32 32 32 31 31 39 38 40 39
56 56 57 59 60 60 58 58 59 60 60 60 60 59 57 55 52 48 44 43 43 40 40 37 38 37 35 34 32 34 35 33 33 31 32 32 32 31 29 34 36 35 36
57 57 59 60 60 59 59 58 59 60 59 59 59 58 55 52 50 46 44 43 41 40 39 38 38 39 37 36 32 33 36 34 34 34 31 30 32 33 31 33 31 29 33
56 57 58 59 59 58 57 57 57 58 57 56 56 55 52 49 48 46 43 42 41 40 39 40 40 38 36 37 33 32 35 36 36 35 34 33 33 32 33 32 31 31 29
54 56 57 58 57 57 56 56 57 56 55 55 54 53 51 49 47 45 43 41 41 40 40 40 39 37 37 37 29 29 23 29 33 34 34 33 34 33 30 32 34 33 32
54 55 56 57 57 57 57 56 53 52 51 51 52 50 49 47 45 43 43 42 42 41 39 40 39 37 34 35 36 26 20 15 24 30 33 34 34 34 32 33 32 33 33
55 56 56 57 57 57 57 55 54 54 52 51 51 49 48 46 44 43 42 42 42 40 40 40 38 37 33 28 33 33 33 27 18 18 28 31 34 34 33 32 31 32 34
55 56 57 56 56 56 56 56 55 54 53 52 50 48 48 48 45 42 42 42 41 40 41 39 37 36 35 34 29 30 31 30 32 28 20 25 31 32 32 32 33 33 31
55 56 56 56 56 56 56 56 54 53 51 50 49 48 47 46 44 42 41 41 41 40 37 35 36 34 35 34 32 32 29 26 24 28 28 28 29 30 32 32 32 32 28

GFSSE_sfc_30mbdewp_066.txt.gz
Dewpoint
64 63 69 70 70 70 70 70 69 69 69 68 67 65 64 63 63 63 63 63 63 64 65 65 65 64 64 64 64 63 64 63 62 60 58 57 57 58 59 60 56 56 59
65 63 69 69 70 69 69 69 69 69 68 67 65 64 63 63 63 62 62 63 62 62 62 65 65 63 63 62 63 62 61 62 61 60 59 58 59 59 59 60 60 58 59
64 62 66 69 69 69 69 69 69 68 67 65 64 64 63 63 63 62 62 63 63 62 62 63 64 64 61 61 62 61 61 61 59 56 53 51 56 59 59 59 60 59 59
63 61 62 68 68 68 68 68 68 67 65 64 64 64 63 63 62 63 63 65 66 65 62 62 65 62 61 62 62 61 61 59 58 55 49 49 52 57 57 57 58 59 59
63 60 63 68 68 68 68 67 67 65 64 64 64 64 63 62 63 63 64 65 66 65 63 64 64 60 62 63 63 62 61 58 55 49 49 51 51 55 55 56 55 57 57
64 61 67 68 68 68 67 67 65 64 64 64 64 63 62 62 62 62 62 63 65 65 65 65 62 61 63 62 62 61 58 56 52 49 50 53 53 55 54 53 55 56 56
65 64 65 67 67 67 67 66 64 64 64 64 64 63 63 62 62 62 62 62 62 64 64 61 60 61 61 61 60 59 56 53 47 47 48 51 54 53 52 51 53 54 54
66 65 65 66 67 67 66 65 64 64 64 64 63 63 63 63 63 62 62 62 62 62 61 60 60 59 59 58 58 56 54 53 47 46 47 50 54 53 50 49 51 51 52
65 65 64 64 65 66 65 65 64 64 64 64 64 64 63 63 62 62 61 61 60 60 60 60 60 59 58 57 56 54 52 50 47 47 46 49 54 52 49 48 48 48 49
65 65 63 62 61 59 58 62 64 64 64 64 63 62 61 61 61 61 60 61 61 60 59 58 58 58 57 56 54 51 49 48 44 43 46 51 53 51 49 47 47 47 48
63 60 60 60 60 59 57 61 63 64 63 62 60 60 55 52 52 53 59 61 61 59 58 57 56 54 50 48 43 41 43 43 42 42 45 55 52 52 50 48 47 47 47
59 58 59 60 58 58 57 57 60 60 57 55 54 53 51 52 51 54 58 59 57 55 52 50 46 44 44 41 39 38 37 37 36 38 44 53 50 51 49 48 47 46 46
59 59 59 59 57 57 56 59 59 57 58 55 53 50 54 55 55 55 55 52 50 48 43 42 43 43 43 41 39 37 35 31 30 29 40 48 51 49 49 48 46 45 44
56 57 58 58 58 57 58 59 59 57 55 55 52 53 55 54 55 55 53 52 49 46 46 45 44 44 41 39 37 35 34 30 29 27 39 48 48 49 48 47 46 44 43
55 56 57 58 57 57 57 57 54 54 53 51 53 53 53 53 54 54 53 50 48 47 45 44 42 39 38 36 34 32 32 33 33 32 40 51 50 47 47 44 44 45 42
55 55 55 55 54 55 58 56 53 51 54 53 53 55 57 54 56 54 53 49 46 45 44 42 39 37 35 34 34 33 31 31 34 36 37 43 46 46 45 43 41 41 40
53 53 51 54 57 55 58 55 51 50 50 49 50 56 58 58 58 54 51 48 46 45 44 41 38 36 33 31 31 30 30 32 33 35 33 35 39 40 41 41 41 42 42
49 49 51 53 57 59 58 54 51 51 52 52 55 59 60 60 58 55 52 48 46 43 41 39 37 34 32 30 31 29 29 30 33 31 30 31 32 29 37 38 37 37 37
49 49 51 56 59 61 59 56 55 55 54 56 60 60 60 60 58 55 50 48 46 43 42 39 37 35 34 32 30 32 31 30 32 27 29 31 32 27 25 34 32 33 34
52 52 54 56 58 59 60 58 54 53 54 58 61 61 60 59 57 54 49 47 45 43 42 38 37 36 35 35 31 32 33 32 32 31 29 28 28 29 28 29 29 29 30
51 53 54 55 57 60 59 54 52 53 56 59 61 60 59 57 56 52 48 47 45 43 40 41 39 38 37 37 35 34 34 35 35 33 32 29 29 29 30 29 29 27 26
54 55 55 56 58 59 56 54 52 53 54 57 60 59 58 56 54 51 48 46 45 42 42 41 39 38 38 37 34 33 32 32 34 33 32 29 30 29 28 29 31 30 30
52 54 55 56 57 58 56 54 53 55 56 57 58 58 57 54 52 49 47 46 44 42 42 41 41 39 37 37 36 32 28 29 23 25 29 29 29 31 30 30 30 30 30
52 52 55 56 57 58 57 54 52 52 52 54 57 57 54 52 50 47 47 46 44 42 42 41 41 39 36 34 34 32 31 25 19 17 22 26 29 31 30 30 30 30 30
52 53 53 54 56 58 58 56 55 54 53 55 56 55 53 50 48 46 45 45 44 43 43 41 40 38 36 35 33 30 29 28 27 26 25 23 23 25 27 28 29 29 30
54 55 55 54 55 57 59 58 57 56 56 56 55 53 52 51 46 45 43 44 44 43 43 41 40 37 37 34 32 30 28 23 22 22 22 21 21 23 24 28 28 28 29

GFSSE_sfc_30mbdewp_069.txt.gz
Dewpoint
60 64 69 71 70 70 70 70 70 69 69 68 67 66 65 65 65 65 65 65 66 66 65 65 65 63 62 62 63 62 62 62 61 60 59 58 58 59 59 60 57 57 60
61 64 69 70 70 70 70 70 69 69 68 67 66 65 65 64 64 64 65 66 66 66 65 64 63 61 61 61 61 61 61 62 61 62 60 58 59 59 60 60 60 59 59
61 63 68 70 70 70 70 69 69 69 67 66 65 64 64 64 64 64 64 65 65 66 64 63 60 59 60 60 61 60 59 58 58 61 54 50 55 57 58 59 61 60 59
61 62 66 70 70 69 69 69 68 67 66 65 64 64 64 64 64 64 65 64 64 65 64 63 59 60 60 62 61 60 58 56 56 56 48 48 50 55 56 57 58 58 59
62 61 67 69 69 69 69 68 67 66 65 64 64 64 64 64 65 66 67 67 65 64 64 61 60 61 62 63 61 59 57 56 57 48 50 50 49 53 54 55 54 56 56
62 61 67 68 68 68 68 67 66 65 64 64 64 64 64 64 66 66 67 66 65 65 64 60 61 62 63 62 59 57 56 54 53 47 50 52 51 52 52 54 55 55 55
62 63 66 68 68 68 67 66 65 65 65 64 64 64 64 63 64 64 66 66 66 66 62 60 61 61 61 60 58 55 54 54 45 45 48 51 52 51 51 52 53 53 53
65 65 66 67 68 67 66 65 65 65 65 64 64 63 63 63 64 64 64 65 64 63 62 62 61 60 59 58 56 54 53 52 45 45 48 51 53 50 50 50 50 50 51
64 66 65 66 66 65 64 64 64 65 64 64 64 64 64 63 63 62 63 63 62 61 61 60 60 59 58 56 54 50 48 49 46 45 46 49 52 50 49 48 48 49 49
64 65 63 63 64 62 62 64 64 65 65 64 63 63 62 61 62 62 61 61 61 60 60 59 59 58 56 54 50 47 47 49 42 42 48 52 52 50 48 48 48 48 48
61 61 59 59 59 59 59 60 64 64 63 62 61 60 56 52 52 52 61 61 60 60 59 58 57 54 51 47 43 42 45 40 39 41 48 54 52 51 49 48 47 48 47
58 59 57 56 56 56 57 58 60 61 59 57 56 54 51 53 51 54 59 59 58 57 56 55 52 49 46 42 41 39 36 35 33 37 48 53 51 51 49 48 47 47 46
59 58 58 56 56 55 58 60 59 59 55 56 55 53 53 55 56 55 55 52 52 51 47 45 44 46 47 44 42 37 33 31 30 29 41 46 51 51 50 48 46 45 45
58 57 58 57 57 57 58 58 59 57 54 55 55 56 56 55 54 53 52 52 50 47 46 47 47 48 44 41 38 36 34 30 29 28 45 47 48 50 49 48 46 44 43
57 57 57 57 56 55 56 55 55 54 55 55 54 56 55 54 55 53 53 51 49 49 49 48 47 43 42 39 35 33 32 33 33 32 45 51 50 48 48 44 45 45 43
55 55 56 56 57 56 55 50 47 51 51 53 55 54 56 54 55 53 53 51 50 49 48 47 45 43 39 37 35 32 31 30 34 35 38 45 47 47 46 44 42 42 42
55 55 55 56 55 54 53 54 53 53 51 50 50 55 55 53 55 54 53 51 49 49 48 46 44 41 38 33 32 32 32 32 34 33 31 39 43 44 43 41 43 42 41
53 54 54 53 53 54 56 55 54 50 51 50 49 53 54 57 58 56 53 51 50 49 47 45 43 40 36 34 33 32 31 31 32 31 30 31 32 32 41 38 36 35 35
52 51 50 51 53 57 57 54 50 52 49 47 51 57 60 60 59 57 55 53 50 48 46 44 42 39 35 34 34 35 35 32 34 28 30 30 32 28 26 36 33 33 32
50 49 50 54 57 58 58 55 52 52 51 51 54 57 59 60 60 58 54 52 51 47 46 45 42 38 37 37 31 33 37 36 34 34 32 30 30 31 30 30 31 31 34
48 48 50 54 56 57 56 53 49 47 48 50 56 59 60 60 59 58 53 52 50 48 47 44 42 40 39 40 38 38 37 38 37 36 34 34 31 30 30 31 32 29 29
50 50 50 51 54 55 53 51 47 47 47 50 58 60 60 59 58 57 53 51 50 48 47 45 42 40 41 40 39 37 37 37 36 37 36 34 32 32 30 29 30 32 31
49 51 51 51 51 53 52 51 49 49 49 50 56 58 59 58 57 56 53 51 50 48 46 45 43 41 40 40 39 38 35 36 33 32 33 31 32 31 33 31 31 31 30
50 51 53 52 51 53 54 51 50 48 48 49 54 57 57 57 57 54 52 51 50 49 46 45 43 43 42 40 39 37 37 33 32 30 28 28 30 31 32 32 31 31 30
50 51 53 52 52 53 56 53 51 50 50 51 54 57 58 56 55 54 52 51 51 49 46 46 43 44 42 39 37 37 35 35 35 31 29 29 28 26 26 28 28 30 29
51 53 52 52 53 53 55 56 54 53 52 50 55 56 56 55 54 54 53 51 50 47 46 46 44 44 40 39 37 35 35 34 31 27 26 26 24 25 25 23 26 28 28

GFSSE_sfc_30mbdewp_072.txt.gz
Dewpoint
62 67 71 70 70 70 70 70 69 69 69 68 67 67 67 67 67 67 67 67 67 66 65 63 63 61 60 58 59 61 62 62 62 61 60 59 59 59 60 61 59 59 60
65 68 70 70 70 70 70 70 69 69 68 67 67 66 66 66 66 66 67 67 66 66 64 61 61 60 59 60 61 62 63 63 62 61 58 58 58 59 62 61 60 59 59
61 68 70 70 70 70 70 69 69 69 68 67 66 66 65 65 66 67 67 67 65 64 61 60 59 58 58 60 60 60 60 61 62 60 53 52 56 57 58 59 60 59 59
66 68 69 70 70 69 69 69 69 68 67 66 65 65 65 65 66 66 66 66 66 64 59 59 59 59 59 60 59 59 59 58 59 57 50 50 51 55 56 56 57 58 58
64 66 69 69 69 69 69 69 68 67 66 65 65 64 65 65 66 66 66 66 65 63 60 60 60 60 61 60 59 58 55 55 54 52 52 51 51 53 55 55 55 56 56
64 65 69 69 69 69 69 68 67 66 65 65 64 65 65 67 67 67 66 66 66 62 60 60 61 61 60 58 56 55 55 55 55 51 52 52 51 52 53 53 54 54 54
64 65 67 68 68 68 67 67 66 65 65 65 65 65 67 67 67 67 66 66 65 62 61 61 61 60 58 56 54 53 53 51 50 50 52 52 51 51 51 51 52 52 53
65 64 66 67 66 66 66 65 65 65 65 65 65 65 65 66 67 67 67 66 63 63 63 62 61 59 57 55 51 49 50 52 48 51 52 52 51 50 50 50 51 51 51
64 62 61 62 67 66 65 66 65 65 65 65 65 64 64 65 65 65 65 64 63 63 62 60 59 58 56 52 48 48 49 49 50 50 51 52 50 49 49 49 49 50 50
65 64 61 64 63 64 65 65 65 65 65 65 64 63 63 63 64 63 63 62 62 61 60 59 58 56 52 48 47 47 48 47 47 50 52 54 51 49 49 49 49 49 50
60 62 63 62 62 62 62 63 64 64 63 63 61 60 59 59 60 59 61 61 61 60 59 58 56 51 48 46 43 41 42 40 46 51 54 54 52 50 49 48 48 48 49
57 58 60 59 59 59 60 62 63 62 60 59 57 55 54 56 58 59 61 60 60 59 58 55 52 49 47 42 42 40 37 37 46 51 53 53 53 51 49 48 47 46 47
57 57 58 57 57 56 55 56 56 58 58 58 57 54 57 57 58 58 57 56 55 53 51 51 51 48 49 46 41 39 38 36 39 42 47 50 51 51 50 48 46 45 45
56 55 56 57 58 57 56 58 59 58 56 56 57 55 58 57 57 56 54 54 52 51 48 47 51 49 44 41 39 38 36 36 35 45 48 45 50 51 50 48 47 45 44
56 55 56 57 58 58 58 58 58 57 55 55 56 57 56 57 56 56 55 53 51 50 51 52 49 46 44 41 38 36 35 35 36 47 50 49 48 49 48 46 47 46 43
55 55 56 56 56 55 55 54 54 53 55 55 56 56 56 57 57 56 56 54 52 51 52 51 48 46 45 39 37 34 34 36 36 44 46 49 49 49 47 46 44 44 43
55 54 54 54 54 53 52 52 53 53 52 52 55 55 56 56 56 57 56 55 53 52 52 51 48 47 41 39 36 35 35 34 36 34 44 46 48 47 47 45 45 42 41
54 54 55 53 52 52 52 52 52 52 52 53 54 55 57 57 57 57 56 54 53 53 50 49 47 44 43 37 36 34 34 35 34 33 34 38 45 43 44 42 40 37 35
55 54 54 53 52 52 53 52 52 53 54 54 54 56 57 57 58 58 55 54 52 52 50 49 48 45 39 38 38 38 37 37 34 34 33 31 34 33 40 41 37 36 34
54 54 53 53 53 53 53 57 56 55 53 53 55 57 59 60 60 59 56 55 54 52 50 48 47 44 41 40 35 36 39 38 38 37 34 32 34 33 32 36 36 36 36
54 53 52 52 53 56 56 55 53 53 52 52 55 58 60 61 60 60 59 56 53 51 49 50 48 42 41 42 41 40 41 40 40 38 39 35 35 35 34 33 33 34 36
51 51 51 52 56 58 58 56 53 52 52 51 55 58 60 61 61 60 59 55 53 52 52 48 45 43 44 44 42 41 39 39 40 40 39 39 38 34 33 34 34 32 33
50 50 51 54 57 57 57 54 51 51 50 50 58 60 60 61 60 59 58 55 54 53 51 49 48 45 43 43 42 40 38 37 35 38 40 39 36 35 34 35 35 34 34
49 50 52 52 55 56 55 52 50 48 48 50 57 59 60 60 59 58 57 56 54 53 51 50 48 46 46 43 42 41 39 37 34 34 37 36 34 35 35 36 35 35 34
51 53 53 52 52 52 54 54 52 50 50 50 52 58 59 59 58 57 57 55 54 53 52 50 47 47 48 42 42 40 37 37 38 36 34 32 33 35 35 38 34 35 32
52 53 54 54 53 53 55 53 55 52 52 52 56 57 58 58 58 57 56 55 55 54 51 50 49 48 42 42 40 37 36 37 37 36 33 32 30 30 30 30 30 31 31

GFSSE_sfc_30mbdewp_075.txt.gz
Dewpoint
60 67 70 71 70 70 70 69 69 68 68 68 68 68 68 68 68 67 68 67 67 64 62 61 61 61 60 59 60 63 63 62 61 61 59 59 60 61 60 59 60 59 59
60 62 66 70 70 70 70 69 69 68 68 68 68 68 67 67 67 68 67 67 65 62 61 59 59 60 61 61 62 63 63 60 60 60 59 58 58 60 60 60 60 59 58
62 60 66 69 70 70 69 69 69 68 67 67 67 67 67 67 68 67 67 65 63 62 59 58 58 59 60 60 62 62 61 60 59 55 54 55 57 57 58 58 58 58 58
59 60 64 67 69 69 69 69 68 68 67 66 66 66 66 67 67 67 66 64 63 61 58 57 56 59 60 60 59 58 59 57 54 52 51 53 55 56 56 56 56 57 59
58 59 61 67 68 69 69 69 68 67 66 66 66 66 67 67 67 67 65 63 63 61 59 57 57 59 59 57 58 57 59 57 55 52 52 52 53 54 55 55 55 56 57
61 65 64 68 68 69 69 68 67 66 65 65 66 66 67 67 67 67 65 63 62 61 59 58 58 57 56 54 54 54 57 55 53 52 52 52 52 53 53 54 54 54 55
65 66 68 68 69 69 68 67 66 66 65 65 66 66 67 67 66 67 65 63 62 62 60 58 58 56 54 52 51 54 56 54 52 51 51 51 51 52 52 52 52 53 53
64 65 65 67 67 67 67 66 66 65 65 66 67 67 67 67 66 67 64 63 63 63 62 60 57 54 52 51 50 50 55 53 52 51 51 51 51 51 51 51 52 52 52
63 64 63 62 64 66 66 66 65 65 66 66 67 67 67 67 67 66 64 64 64 63 61 59 57 53 52 49 49 47 48 54 52 51 50 50 50 50 51 50 51 51 51
61 62 63 64 63 64 65 65 65 65 65 65 65 65 66 65 65 64 64 63 63 61 60 58 54 52 48 46 44 42 49 52 52 52 53 52 50 49 50 49 50 50 50
62 62 63 62 62 62 63 64 64 64 63 63 63 63 63 63 62 61 62 62 61 60 59 55 53 49 45 42 40 41 45 51 52 54 54 53 51 49 49 49 49 49 49
59 60 61 61 61 61 62 62 62 61 59 59 58 57 58 60 60 61 61 61 60 59 57 56 53 50 43 42 42 39 40 50 52 53 55 54 51 50 48 48 47 47 47
58 58 59 59 60 60 60 61 61 60 57 57 56 56 59 59 59 59 58 58 58 57 55 54 51 47 48 43 38 36 38 43 47 49 53 55 51 50 49 48 47 46 45
55 56 56 56 57 57 57 57 58 58 56 57 56 58 57 57 55 54 54 53 51 50 49 48 50 45 41 39 37 36 35 39 41 44 47 50 53 51 50 48 46 45 45
54 56 56 56 55 55 54 54 53 57 56 57 58 59 58 56 54 54 52 52 51 48 49 51 47 44 41 39 38 35 34 39 43 45 46 46 49 52 50 50 47 46 44
54 55 56 56 56 57 56 55 55 56 55 57 57 57 58 57 55 55 53 52 51 49 51 50 47 44 42 37 35 34 35 38 45 45 49 51 51 52 48 47 45 45 44
55 55 54 55 56 56 54 53 52 51 53 54 55 56 57 57 55 56 54 53 53 50 52 49 47 46 42 39 34 35 34 36 40 44 46 48 50 49 48 47 47 45 42
54 53 54 54 54 53 52 51 50 48 48 50 53 54 55 57 56 57 55 55 54 53 51 50 48 45 42 36 35 34 35 37 33 36 44 46 47 47 48 46 43 40 37
54 54 53 52 52 51 50 49 48 48 50 48 50 54 55 56 57 57 56 54 53 52 50 48 47 44 42 39 35 37 36 35 34 33 33 41 44 43 42 43 40 38 36
53 53 52 51 50 51 52 51 51 51 52 49 52 54 56 56 57 58 56 53 53 51 50 49 47 47 41 38 38 38 37 37 35 36 32 32 34 38 38 39 38 38 39
54 53 52 50 51 53 52 51 52 54 54 53 54 55 57 59 59 58 56 54 53 52 50 49 48 44 42 42 40 40 40 39 39 38 37 34 34 34 34 36 34 36 38
53 53 52 51 51 53 52 53 53 54 53 53 55 58 59 59 60 59 58 57 55 52 50 48 47 43 41 42 39 42 39 40 40 40 39 38 35 36 35 34 34 34 34
53 52 51 50 51 52 53 55 54 53 53 52 53 57 59 60 60 60 59 57 54 52 51 49 46 42 40 45 42 40 38 37 38 39 40 40 39 38 34 33 35 34 33
52 52 50 50 51 52 56 56 54 51 50 50 53 56 59 60 60 60 59 58 54 53 52 50 47 45 43 42 42 41 40 37 35 35 37 39 38 36 34 35 35 36 35
49 49 50 51 52 57 57 56 55 51 50 50 55 57 58 60 60 59 59 57 56 53 53 51 49 47 48 45 41 40 39 37 36 36 34 34 34 35 36 36 36 36 36
49 49 50 50 53 56 57 56 54 51 49 49 55 58 58 59 59 59 58 57 56 55 54 53 52 49 48 45 44 39 37 37 37 37 36 35 33 30 31 32 33 36 35